GEFSSE_prec_meanprecacc_156.txt.gz
Total_Precipitation_Accumulation
1.19 0.82 1.52 1.43 1.25 1.08 1.03 1.08 1.11 1.09 1.06 1.00 0.89 0.78 0.69 0.64 0.61 0.60 0.55 0.50 0.50 0.51 0.54 0.59 0.57 0.57 0.54 0.55 0.57 0.62 0.62 0.61 0.58 0.47 0.44 0.47 0.53 0.61 0.77 0.91 1.17 1.55 1.15
0.75 0.64 1.31 1.42 1.24 1.17 1.13 1.06 1.02 1.00 0.98 0.91 0.84 0.75 0.69 0.66 0.61 0.57 0.52 0.49 0.48 0.47 0.49 0.54 0.57 0.60 0.62 0.62 0.70 0.76 0.71 0.66 0.69 0.65 0.71 0.80 0.70 0.68 0.69 0.84 1.25 1.52 1.13
0.55 0.52 0.88 1.35 1.28 1.23 1.18 1.08 0.96 0.91 0.84 0.78 0.77 0.70 0.67 0.64 0.58 0.54 0.52 0.50 0.49 0.47 0.47 0.53 0.61 0.65 0.66 0.71 0.77 0.80 0.80 0.78 0.79 0.79 1.15 1.66 1.25 0.87 0.84 0.88 0.95 1.01 1.01
0.43 0.46 0.72 1.21 1.23 1.20 1.19 1.03 0.93 0.87 0.80 0.79 0.79 0.73 0.72 0.67 0.60 0.56 0.55 0.49 0.48 0.49 0.54 0.56 0.61 0.68 0.71 0.72 0.71 0.71 0.74 0.80 0.89 0.85 1.21 1.65 1.64 1.22 1.03 1.02 0.91 0.92 1.04
0.45 0.54 0.89 1.22 1.19 1.16 1.08 0.97 0.98 0.90 0.79 0.79 0.77 0.75 0.76 0.71 0.68 0.59 0.57 0.55 0.53 0.56 0.61 0.60 0.62 0.67 0.72 0.74 0.71 0.68 0.72 0.93 0.90 0.81 1.05 1.36 1.74 1.42 1.11 1.10 1.00 0.98 1.08
0.60 0.58 0.77 1.01 1.07 1.06 0.89 0.85 0.92 0.86 0.80 0.73 0.68 0.69 0.70 0.68 0.68 0.63 0.63 0.63 0.59 0.60 0.65 0.69 0.72 0.74 0.73 0.74 0.72 0.77 0.88 0.93 0.81 0.98 1.13 1.35 1.62 1.39 1.08 1.02 1.08 1.15 1.23
0.60 0.51 0.59 0.89 0.92 0.91 0.82 0.83 0.93 0.86 0.80 0.69 0.65 0.70 0.72 0.69 0.68 0.67 0.69 0.67 0.63 0.60 0.63 0.68 0.73 0.74 0.70 0.71 0.73 0.75 0.85 0.83 0.89 1.10 1.16 1.35 1.35 1.23 1.05 0.97 1.12 1.19 1.28
0.77 0.62 0.62 0.89 0.90 0.86 0.86 0.86 0.92 0.94 0.84 0.71 0.67 0.67 0.64 0.65 0.64 0.65 0.65 0.65 0.64 0.62 0.67 0.68 0.68 0.67 0.61 0.63 0.65 0.65 0.77 0.77 0.78 0.93 1.05 1.29 1.33 1.24 0.99 0.93 1.02 1.13 1.26
1.11 0.98 0.89 0.88 0.83 0.84 0.90 0.86 1.01 1.15 0.99 0.81 0.73 0.71 0.63 0.59 0.57 0.58 0.58 0.63 0.63 0.65 0.65 0.65 0.68 0.67 0.64 0.62 0.62 0.68 0.79 0.76 0.70 0.83 0.85 1.16 1.36 1.28 1.08 0.98 0.98 1.13 1.26
1.09 1.00 0.97 1.05 1.03 1.02 1.04 1.10 1.22 1.53 1.40 1.03 0.85 0.73 0.67 0.59 0.57 0.61 0.58 0.61 0.67 0.70 0.71 0.74 0.74 0.73 0.75 0.71 0.68 0.75 0.80 0.65 0.64 0.63 0.71 0.94 1.38 1.32 1.10 0.96 0.91 0.96 1.07
0.84 0.85 0.90 0.96 0.96 0.99 0.96 1.13 1.40 1.68 1.74 1.40 1.12 0.96 0.79 0.55 0.58 0.66 0.60 0.71 0.77 0.79 0.83 0.89 0.89 0.84 0.84 0.76 0.75 0.78 0.66 0.48 0.70 0.71 0.75 0.99 1.31 1.32 1.07 0.84 0.75 0.81 0.86
0.64 0.58 0.59 0.63 0.67 0.72 0.77 1.04 1.27 1.33 1.53 1.31 1.28 1.13 0.98 0.92 0.87 0.69 0.65 0.81 0.89 0.90 0.88 0.94 0.99 0.84 0.71 0.58 0.62 0.66 0.47 0.44 0.62 0.67 0.67 1.09 1.42 1.39 1.11 0.88 0.78 0.80 0.78
0.59 0.54 0.46 0.47 0.49 0.54 0.67 0.88 1.10 1.23 1.40 1.41 1.39 1.33 1.32 1.27 0.94 0.78 0.85 0.89 0.90 0.90 0.79 0.84 0.84 0.65 0.53 0.50 0.56 0.50 0.43 0.46 0.56 0.66 0.78 1.13 1.47 1.48 1.18 0.96 0.89 0.86 0.84
0.53 0.59 0.50 0.37 0.37 0.39 0.47 0.66 0.86 1.07 1.26 1.31 1.14 1.06 1.19 1.21 1.01 0.88 1.01 1.09 1.07 1.03 1.02 1.02 0.93 0.77 0.60 0.55 0.54 0.53 0.49 0.54 0.60 0.69 0.85 0.93 1.29 1.44 1.34 1.13 1.06 0.96 0.96
0.52 0.57 0.58 0.48 0.40 0.39 0.44 0.51 0.58 0.87 1.05 1.20 1.25 1.03 1.15 1.19 1.12 0.99 0.93 1.10 1.07 1.06 1.07 1.08 1.04 0.92 0.82 0.69 0.65 0.61 0.66 0.65 0.64 0.62 0.79 0.81 1.00 1.30 1.42 1.36 1.30 1.12 1.11
0.44 0.48 0.52 0.55 0.54 0.50 0.49 0.51 0.51 0.56 0.67 0.79 0.76 0.73 0.92 1.04 1.01 1.01 0.88 0.94 1.01 1.12 1.27 1.28 1.11 1.03 0.94 0.85 0.84 0.81 0.79 0.76 0.75 0.64 0.74 0.80 0.73 0.84 1.09 1.38 1.50 1.37 1.31
0.40 0.43 0.47 0.54 0.61 0.62 0.63 0.71 0.64 0.59 0.64 0.64 0.60 0.61 0.72 0.83 0.85 0.98 0.96 0.93 0.95 1.13 1.31 1.40 1.28 1.19 1.02 0.96 0.95 0.92 0.84 0.88 0.86 0.76 0.78 0.86 0.71 0.63 0.82 1.18 1.48 1.56 1.49
0.38 0.37 0.39 0.43 0.48 0.53 0.60 0.68 0.73 0.73 0.75 0.71 0.74 0.70 0.66 0.80 0.92 1.04 1.08 1.00 0.98 1.15 1.33 1.45 1.51 1.48 1.33 1.24 1.16 1.05 0.99 1.08 1.00 0.88 0.85 0.88 0.91 0.79 0.76 0.88 1.16 1.43 1.57
0.37 0.33 0.31 0.32 0.32 0.35 0.42 0.54 0.65 0.72 0.80 0.87 0.88 0.87 0.85 0.89 0.93 1.06 1.22 1.23 1.21 1.29 1.34 1.35 1.43 1.41 1.42 1.40 1.26 1.20 1.12 1.16 1.16 1.02 0.99 1.03 1.05 1.03 0.91 0.75 0.87 0.91 1.22
0.31 0.31 0.30 0.31 0.30 0.27 0.31 0.45 0.56 0.63 0.71 0.87 0.94 1.01 1.27 1.36 1.15 1.11 1.23 1.25 1.28 1.42 1.43 1.54 1.69 1.57 1.46 1.53 1.43 1.32 1.22 1.16 1.12 1.13 1.18 1.21 1.19 1.11 1.08 0.94 0.93 0.75 0.84
0.16 0.15 0.18 0.24 0.31 0.29 0.26 0.33 0.44 0.53 0.67 0.81 0.97 1.04 1.28 1.38 1.29 1.30 1.31 1.30 1.31 1.36 1.39 1.57 1.88 1.81 1.63 1.55 1.71 1.63 1.46 1.29 1.18 1.17 1.20 1.33 1.36 1.25 1.23 1.27 1.13 0.94 0.76
0.09 0.09 0.12 0.16 0.25 0.32 0.36 0.41 0.53 0.71 0.83 0.93 1.06 1.13 1.25 1.27 1.26 1.19 1.34 1.43 1.38 1.46 1.54 1.69 1.92 2.03 1.83 1.68 1.93 2.25 1.97 1.68 1.32 1.18 1.20 1.19 1.32 1.33 1.25 1.16 1.12 1.07 0.91
0.05 0.07 0.12 0.20 0.33 0.50 0.66 0.88 1.13 1.41 1.53 1.42 1.27 1.34 1.47 1.55 1.51 1.43 1.50 1.64 1.55 1.56 1.61 1.66 1.71 2.07 2.16 1.98 1.96 2.38 2.17 1.95 1.87 1.41 1.14 1.08 1.28 1.37 1.35 1.24 1.13 1.20 1.17
0.13 0.19 0.29 0.41 0.57 0.74 0.95 1.17 1.43 1.66 1.82 1.84 1.86 1.90 1.88 1.83 1.72 1.61 1.59 1.64 1.66 1.70 1.64 1.53 1.66 1.99 2.37 2.36 2.19 2.01 1.85 1.75 1.93 1.80 1.31 1.07 1.17 1.29 1.40 1.31 1.23 1.25 1.30
0.29 0.42 0.54 0.76 0.93 1.07 1.13 1.23 1.45 1.56 1.63 1.74 1.88 1.93 1.93 1.85 1.73 1.59 1.51 1.55 1.62 1.72 1.71 1.75 1.89 2.15 2.38 2.54 2.48 2.21 1.94 1.73 1.45 1.61 1.59 1.38 1.17 1.10 1.14 1.27 1.35 1.28 1.27
0.58 0.81 0.96 1.07 1.16 1.16 1.14 1.16 1.30 1.44 1.52 1.60 1.73 1.79 1.73 1.59 1.55 1.52 1.49 1.45 1.41 1.48 1.59 1.75 1.98 2.10 2.26 2.45 2.46 2.19 1.99 1.84 1.67 1.61 1.47 1.51 1.50 1.23 1.06 1.07 1.15 1.18 1.21

GEFSSE_prec_meanprecacc_162.txt.gz
Total_Precipitation_Accumulation
1.40 0.96 1.63 1.56 1.40 1.19 1.13 1.17 1.20 1.20 1.20 1.14 1.02 0.92 0.82 0.74 0.69 0.67 0.61 0.55 0.54 0.57 0.63 0.66 0.64 0.63 0.57 0.56 0.58 0.63 0.64 0.62 0.59 0.48 0.45 0.49 0.55 0.64 0.81 0.95 1.23 1.63 1.19
0.89 0.73 1.42 1.62 1.48 1.33 1.27 1.17 1.11 1.12 1.11 1.04 0.97 0.87 0.78 0.73 0.68 0.64 0.60 0.55 0.53 0.53 0.58 0.62 0.64 0.66 0.65 0.64 0.71 0.76 0.72 0.67 0.70 0.67 0.74 0.84 0.72 0.70 0.72 0.87 1.31 1.58 1.16
0.64 0.59 0.96 1.52 1.52 1.41 1.34 1.22 1.07 1.04 0.95 0.87 0.86 0.76 0.72 0.68 0.62 0.58 0.57 0.57 0.53 0.51 0.53 0.58 0.65 0.69 0.69 0.74 0.79 0.82 0.81 0.79 0.79 0.81 1.21 1.75 1.30 0.89 0.85 0.91 0.99 1.04 1.03
0.49 0.51 0.76 1.29 1.34 1.33 1.32 1.13 1.03 0.96 0.87 0.85 0.83 0.77 0.75 0.70 0.63 0.59 0.60 0.55 0.51 0.52 0.57 0.60 0.65 0.72 0.74 0.76 0.74 0.72 0.75 0.81 0.91 0.90 1.29 1.74 1.71 1.25 1.05 1.03 0.93 0.95 1.06
0.49 0.58 0.94 1.30 1.28 1.25 1.16 1.04 1.04 0.94 0.83 0.83 0.82 0.79 0.79 0.74 0.70 0.62 0.61 0.59 0.56 0.59 0.63 0.63 0.66 0.70 0.75 0.77 0.74 0.70 0.74 0.94 0.92 0.87 1.14 1.44 1.82 1.46 1.13 1.12 1.02 1.00 1.10
0.67 0.65 0.81 1.06 1.12 1.12 0.95 0.89 0.95 0.89 0.84 0.77 0.72 0.72 0.72 0.70 0.70 0.66 0.67 0.67 0.64 0.63 0.68 0.72 0.75 0.77 0.78 0.78 0.75 0.80 0.90 0.95 0.86 1.05 1.21 1.43 1.69 1.42 1.09 1.03 1.10 1.17 1.26
0.66 0.59 0.62 0.93 0.97 0.96 0.88 0.88 0.97 0.89 0.83 0.72 0.67 0.72 0.74 0.72 0.70 0.70 0.73 0.69 0.66 0.63 0.66 0.73 0.77 0.78 0.74 0.75 0.76 0.79 0.87 0.85 0.93 1.16 1.23 1.42 1.41 1.26 1.06 0.98 1.13 1.21 1.30
0.82 0.68 0.65 0.92 0.95 0.91 0.90 0.89 0.95 0.98 0.86 0.74 0.69 0.69 0.67 0.67 0.66 0.67 0.67 0.68 0.67 0.65 0.70 0.72 0.73 0.71 0.64 0.66 0.68 0.68 0.79 0.78 0.80 0.98 1.11 1.34 1.37 1.26 1.00 0.95 1.04 1.15 1.28
1.12 1.01 0.92 0.91 0.85 0.88 0.93 0.88 1.03 1.16 1.01 0.83 0.74 0.72 0.65 0.63 0.61 0.61 0.61 0.66 0.65 0.67 0.68 0.68 0.71 0.70 0.67 0.65 0.65 0.70 0.81 0.78 0.73 0.88 0.91 1.22 1.39 1.30 1.10 1.00 1.01 1.16 1.29
1.11 1.04 1.03 1.09 1.06 1.05 1.05 1.11 1.23 1.55 1.43 1.07 0.86 0.74 0.70 0.63 0.61 0.64 0.60 0.62 0.69 0.71 0.73 0.76 0.76 0.76 0.79 0.73 0.70 0.77 0.82 0.67 0.67 0.69 0.78 1.00 1.42 1.34 1.12 0.99 0.94 0.99 1.10
0.87 0.89 0.94 0.98 0.99 1.02 0.98 1.14 1.40 1.69 1.76 1.41 1.13 0.97 0.81 0.57 0.59 0.67 0.61 0.72 0.78 0.81 0.84 0.91 0.92 0.87 0.88 0.78 0.77 0.79 0.68 0.51 0.73 0.78 0.83 1.04 1.35 1.35 1.09 0.86 0.79 0.85 0.88
0.66 0.61 0.61 0.64 0.69 0.73 0.78 1.05 1.28 1.34 1.53 1.32 1.28 1.14 0.99 0.92 0.87 0.69 0.65 0.81 0.90 0.91 0.89 0.97 1.02 0.87 0.74 0.61 0.64 0.67 0.49 0.48 0.66 0.71 0.70 1.14 1.49 1.46 1.15 0.92 0.82 0.83 0.80
0.61 0.55 0.47 0.48 0.50 0.55 0.69 0.90 1.11 1.24 1.40 1.41 1.39 1.33 1.33 1.27 0.94 0.78 0.85 0.89 0.91 0.91 0.80 0.85 0.86 0.67 0.55 0.52 0.57 0.52 0.45 0.49 0.61 0.69 0.80 1.17 1.53 1.54 1.22 0.99 0.94 0.90 0.88
0.54 0.60 0.52 0.38 0.38 0.39 0.48 0.66 0.87 1.07 1.26 1.31 1.14 1.06 1.19 1.21 1.01 0.88 1.01 1.10 1.08 1.04 1.03 1.03 0.94 0.78 0.60 0.55 0.55 0.55 0.51 0.58 0.66 0.72 0.86 0.95 1.33 1.49 1.39 1.17 1.10 1.01 1.02
0.54 0.59 0.60 0.50 0.41 0.39 0.44 0.52 0.58 0.87 1.05 1.20 1.25 1.03 1.15 1.19 1.12 0.99 0.94 1.11 1.07 1.07 1.08 1.08 1.04 0.93 0.82 0.70 0.67 0.62 0.68 0.68 0.67 0.65 0.80 0.82 1.03 1.34 1.47 1.40 1.35 1.18 1.21
0.49 0.53 0.56 0.58 0.55 0.50 0.49 0.51 0.51 0.56 0.67 0.79 0.76 0.73 0.92 1.04 1.01 1.01 0.88 0.94 1.01 1.12 1.28 1.28 1.11 1.03 0.96 0.86 0.86 0.83 0.81 0.78 0.77 0.67 0.76 0.82 0.75 0.87 1.13 1.43 1.57 1.44 1.38
0.43 0.46 0.49 0.55 0.61 0.62 0.63 0.71 0.64 0.59 0.64 0.64 0.60 0.61 0.72 0.83 0.86 0.98 0.96 0.93 0.95 1.13 1.32 1.40 1.29 1.19 1.03 0.97 0.96 0.94 0.85 0.89 0.88 0.78 0.81 0.90 0.74 0.67 0.87 1.26 1.57 1.63 1.56
0.39 0.38 0.40 0.43 0.48 0.53 0.60 0.68 0.73 0.73 0.75 0.71 0.74 0.70 0.66 0.80 0.92 1.04 1.08 1.00 0.99 1.16 1.33 1.46 1.52 1.49 1.36 1.27 1.19 1.08 1.01 1.11 1.02 0.91 0.90 0.93 0.96 0.82 0.79 0.94 1.22 1.48 1.66
0.37 0.33 0.31 0.32 0.32 0.35 0.42 0.54 0.65 0.72 0.80 0.87 0.88 0.87 0.85 0.89 0.93 1.06 1.22 1.24 1.22 1.30 1.36 1.36 1.45 1.43 1.45 1.44 1.29 1.24 1.16 1.20 1.20 1.06 1.05 1.07 1.08 1.07 0.95 0.79 0.90 0.95 1.29
0.32 0.31 0.30 0.31 0.30 0.27 0.31 0.45 0.56 0.63 0.71 0.87 0.94 1.01 1.27 1.37 1.15 1.12 1.23 1.25 1.29 1.43 1.45 1.56 1.72 1.61 1.50 1.57 1.47 1.36 1.28 1.21 1.16 1.19 1.22 1.24 1.23 1.15 1.13 0.98 0.98 0.79 0.87
0.17 0.16 0.19 0.24 0.31 0.29 0.26 0.33 0.44 0.53 0.67 0.81 0.98 1.04 1.28 1.38 1.29 1.30 1.31 1.30 1.32 1.38 1.42 1.60 1.92 1.87 1.68 1.60 1.77 1.71 1.54 1.35 1.25 1.24 1.27 1.41 1.43 1.29 1.28 1.32 1.20 1.00 0.81
0.10 0.09 0.12 0.16 0.25 0.32 0.36 0.41 0.53 0.71 0.83 0.93 1.06 1.13 1.25 1.27 1.27 1.20 1.35 1.44 1.39 1.47 1.55 1.71 1.96 2.10 1.88 1.71 2.00 2.35 2.08 1.78 1.42 1.25 1.28 1.28 1.39 1.41 1.34 1.24 1.18 1.13 0.99
0.06 0.07 0.12 0.20 0.33 0.50 0.66 0.88 1.13 1.41 1.53 1.42 1.27 1.35 1.47 1.55 1.52 1.45 1.51 1.65 1.56 1.57 1.63 1.68 1.74 2.12 2.22 2.02 1.99 2.45 2.27 2.05 1.95 1.50 1.22 1.15 1.35 1.47 1.49 1.38 1.25 1.28 1.23
0.14 0.20 0.29 0.41 0.57 0.74 0.95 1.17 1.43 1.66 1.83 1.84 1.86 1.90 1.88 1.83 1.73 1.62 1.60 1.66 1.66 1.71 1.66 1.54 1.67 2.03 2.42 2.41 2.23 2.04 1.88 1.79 2.00 1.87 1.38 1.15 1.25 1.39 1.56 1.48 1.39 1.38 1.36
0.30 0.43 0.54 0.76 0.93 1.07 1.13 1.23 1.45 1.56 1.63 1.74 1.88 1.93 1.93 1.85 1.73 1.60 1.52 1.57 1.64 1.73 1.73 1.77 1.91 2.17 2.41 2.58 2.51 2.24 1.97 1.76 1.48 1.65 1.65 1.45 1.25 1.20 1.27 1.39 1.47 1.41 1.36
0.58 0.82 0.97 1.07 1.16 1.16 1.14 1.16 1.30 1.44 1.52 1.60 1.73 1.79 1.73 1.60 1.56 1.52 1.50 1.46 1.42 1.50 1.61 1.76 1.99 2.12 2.29 2.49 2.49 2.21 2.03 1.88 1.71 1.64 1.51 1.57 1.56 1.30 1.15 1.14 1.23 1.28 1.30

GEFSSE_prec_meanprecacc_168.txt.gz
Total_Precipitation_Accumulation
1.51 1.07 1.75 1.64 1.47 1.25 1.17 1.21 1.23 1.23 1.24 1.19 1.10 0.97 0.85 0.79 0.74 0.70 0.64 0.58 0.57 0.60 0.66 0.71 0.69 0.69 0.62 0.60 0.62 0.67 0.67 0.66 0.65 0.56 0.52 0.53 0.58 0.67 0.85 1.00 1.26 1.65 1.21
0.97 0.82 1.55 1.72 1.57 1.40 1.32 1.20 1.14 1.15 1.14 1.09 1.03 0.93 0.82 0.76 0.71 0.67 0.63 0.58 0.55 0.55 0.61 0.66 0.70 0.73 0.70 0.68 0.75 0.80 0.75 0.70 0.76 0.74 0.80 0.89 0.77 0.73 0.75 0.91 1.33 1.61 1.18
0.71 0.66 1.03 1.60 1.59 1.49 1.41 1.27 1.11 1.07 0.99 0.92 0.90 0.80 0.75 0.70 0.64 0.60 0.59 0.60 0.57 0.54 0.56 0.62 0.69 0.74 0.74 0.79 0.83 0.86 0.84 0.82 0.83 0.86 1.24 1.77 1.32 0.92 0.89 0.94 1.01 1.06 1.05
0.55 0.58 0.82 1.36 1.40 1.38 1.35 1.16 1.07 0.99 0.90 0.88 0.86 0.80 0.78 0.72 0.66 0.63 0.63 0.58 0.54 0.54 0.59 0.63 0.67 0.75 0.78 0.79 0.77 0.75 0.78 0.83 0.94 0.93 1.30 1.75 1.72 1.27 1.07 1.06 0.95 0.96 1.07
0.53 0.64 1.00 1.36 1.33 1.28 1.18 1.06 1.07 0.96 0.85 0.86 0.85 0.82 0.83 0.78 0.73 0.65 0.64 0.63 0.59 0.61 0.65 0.66 0.69 0.73 0.77 0.80 0.77 0.73 0.76 0.97 0.96 0.89 1.16 1.46 1.84 1.48 1.16 1.15 1.05 1.02 1.11
0.69 0.69 0.85 1.10 1.14 1.14 0.97 0.90 0.97 0.91 0.86 0.80 0.75 0.75 0.75 0.72 0.72 0.68 0.70 0.70 0.67 0.66 0.71 0.75 0.79 0.80 0.80 0.80 0.79 0.83 0.93 0.98 0.89 1.07 1.23 1.45 1.71 1.45 1.12 1.06 1.12 1.18 1.27
0.67 0.60 0.66 0.96 0.99 0.98 0.90 0.90 1.00 0.93 0.86 0.75 0.71 0.75 0.77 0.74 0.72 0.72 0.75 0.73 0.70 0.67 0.69 0.75 0.79 0.80 0.76 0.77 0.80 0.84 0.92 0.89 0.96 1.18 1.25 1.44 1.43 1.29 1.09 1.00 1.15 1.21 1.31
0.82 0.69 0.67 0.94 0.97 0.93 0.92 0.91 0.97 1.00 0.90 0.78 0.73 0.71 0.69 0.70 0.68 0.69 0.69 0.71 0.71 0.69 0.72 0.73 0.74 0.72 0.66 0.68 0.71 0.74 0.86 0.83 0.84 1.02 1.13 1.36 1.41 1.29 1.02 0.97 1.06 1.17 1.30
1.15 1.04 0.95 0.94 0.88 0.91 0.95 0.89 1.04 1.18 1.03 0.86 0.77 0.74 0.67 0.64 0.62 0.62 0.62 0.68 0.68 0.72 0.70 0.69 0.73 0.72 0.69 0.67 0.68 0.75 0.86 0.83 0.76 0.92 0.93 1.25 1.44 1.33 1.12 1.02 1.03 1.18 1.31
1.14 1.08 1.07 1.11 1.09 1.07 1.08 1.14 1.27 1.58 1.46 1.08 0.88 0.76 0.71 0.64 0.62 0.65 0.61 0.65 0.73 0.76 0.76 0.78 0.79 0.79 0.81 0.76 0.74 0.82 0.86 0.70 0.71 0.72 0.82 1.04 1.48 1.37 1.14 1.01 0.97 1.01 1.11
0.89 0.92 0.96 1.00 1.01 1.04 1.00 1.16 1.43 1.72 1.77 1.43 1.14 0.98 0.82 0.57 0.60 0.68 0.63 0.74 0.84 0.87 0.88 0.94 0.97 0.91 0.90 0.81 0.82 0.84 0.72 0.54 0.77 0.81 0.87 1.09 1.41 1.39 1.11 0.89 0.81 0.86 0.89
0.67 0.62 0.62 0.65 0.70 0.74 0.80 1.06 1.29 1.35 1.54 1.33 1.29 1.14 0.99 0.92 0.87 0.70 0.66 0.84 0.94 0.97 0.95 1.01 1.06 0.92 0.78 0.63 0.68 0.72 0.51 0.51 0.70 0.74 0.76 1.22 1.54 1.50 1.19 0.96 0.86 0.85 0.82
0.62 0.56 0.49 0.48 0.51 0.58 0.71 0.92 1.13 1.25 1.41 1.42 1.39 1.33 1.33 1.27 0.94 0.78 0.86 0.90 0.93 0.94 0.84 0.87 0.88 0.73 0.59 0.54 0.60 0.56 0.48 0.51 0.63 0.72 0.86 1.23 1.59 1.60 1.27 1.04 1.00 0.94 0.92
0.54 0.60 0.53 0.39 0.39 0.41 0.50 0.68 0.88 1.08 1.26 1.31 1.14 1.06 1.19 1.21 1.01 0.89 1.02 1.10 1.08 1.05 1.05 1.04 0.96 0.83 0.64 0.58 0.59 0.59 0.54 0.60 0.67 0.74 0.89 1.00 1.38 1.55 1.43 1.22 1.17 1.06 1.08
0.54 0.60 0.61 0.51 0.41 0.39 0.45 0.53 0.59 0.87 1.05 1.20 1.25 1.03 1.15 1.19 1.12 1.00 0.94 1.11 1.08 1.08 1.10 1.10 1.06 0.96 0.87 0.75 0.72 0.66 0.71 0.71 0.69 0.66 0.82 0.85 1.07 1.40 1.52 1.46 1.42 1.25 1.25
0.49 0.56 0.58 0.60 0.56 0.50 0.49 0.52 0.51 0.56 0.67 0.79 0.76 0.73 0.92 1.04 1.02 1.02 0.89 0.95 1.02 1.14 1.30 1.29 1.13 1.06 0.99 0.90 0.91 0.86 0.85 0.82 0.79 0.68 0.77 0.83 0.77 0.91 1.18 1.48 1.63 1.50 1.43
0.43 0.48 0.53 0.58 0.63 0.63 0.63 0.71 0.64 0.59 0.64 0.64 0.60 0.61 0.72 0.83 0.86 0.98 0.97 0.94 0.96 1.15 1.33 1.41 1.32 1.23 1.06 1.01 1.01 0.98 0.90 0.93 0.91 0.81 0.82 0.91 0.76 0.71 0.93 1.32 1.63 1.70 1.64
0.39 0.38 0.41 0.44 0.49 0.54 0.60 0.68 0.73 0.73 0.75 0.71 0.74 0.70 0.66 0.80 0.92 1.04 1.08 1.01 1.01 1.17 1.35 1.48 1.54 1.51 1.38 1.29 1.23 1.12 1.08 1.16 1.06 0.95 0.91 0.94 0.98 0.87 0.84 0.98 1.26 1.54 1.75
0.37 0.33 0.31 0.32 0.32 0.35 0.42 0.54 0.65 0.72 0.80 0.87 0.88 0.87 0.85 0.90 0.93 1.07 1.23 1.25 1.23 1.31 1.36 1.37 1.46 1.44 1.47 1.47 1.32 1.29 1.22 1.28 1.27 1.11 1.09 1.10 1.13 1.11 0.98 0.81 0.93 0.98 1.34
0.32 0.31 0.30 0.31 0.30 0.27 0.31 0.45 0.56 0.63 0.71 0.87 0.94 1.01 1.27 1.37 1.16 1.12 1.24 1.26 1.30 1.45 1.47 1.58 1.73 1.61 1.51 1.60 1.50 1.40 1.33 1.28 1.26 1.26 1.28 1.29 1.29 1.19 1.15 1.00 1.00 0.81 0.90
0.18 0.17 0.19 0.24 0.31 0.29 0.26 0.33 0.44 0.53 0.67 0.81 0.98 1.05 1.28 1.39 1.29 1.31 1.31 1.30 1.33 1.39 1.43 1.61 1.93 1.89 1.69 1.61 1.79 1.73 1.60 1.42 1.34 1.32 1.33 1.46 1.49 1.33 1.31 1.34 1.22 1.01 0.83
0.11 0.10 0.12 0.16 0.25 0.32 0.36 0.41 0.53 0.71 0.83 0.93 1.07 1.14 1.25 1.28 1.27 1.21 1.35 1.44 1.39 1.48 1.56 1.72 1.97 2.11 1.89 1.73 2.01 2.37 2.11 1.84 1.53 1.34 1.35 1.32 1.43 1.44 1.37 1.25 1.21 1.15 1.00
0.07 0.08 0.12 0.20 0.33 0.50 0.66 0.88 1.13 1.41 1.53 1.42 1.27 1.35 1.48 1.56 1.52 1.45 1.53 1.66 1.56 1.57 1.64 1.69 1.75 2.12 2.23 2.04 2.00 2.46 2.29 2.12 2.06 1.61 1.29 1.19 1.39 1.50 1.52 1.40 1.30 1.32 1.25
0.15 0.21 0.30 0.41 0.57 0.74 0.95 1.17 1.43 1.66 1.83 1.84 1.86 1.90 1.88 1.84 1.74 1.62 1.62 1.67 1.67 1.71 1.66 1.55 1.68 2.03 2.43 2.43 2.25 2.06 1.89 1.84 2.07 1.94 1.44 1.20 1.30 1.44 1.61 1.51 1.44 1.44 1.41
0.32 0.44 0.54 0.76 0.93 1.07 1.13 1.23 1.45 1.56 1.63 1.74 1.89 1.94 1.93 1.86 1.74 1.60 1.53 1.58 1.65 1.74 1.73 1.77 1.91 2.18 2.41 2.59 2.52 2.26 2.01 1.80 1.53 1.68 1.70 1.51 1.31 1.26 1.33 1.44 1.53 1.50 1.43
0.60 0.83 0.97 1.07 1.16 1.16 1.14 1.16 1.30 1.44 1.53 1.61 1.74 1.80 1.73 1.60 1.57 1.53 1.51 1.48 1.44 1.51 1.61 1.77 1.99 2.12 2.30 2.50 2.50 2.23 2.05 1.91 1.74 1.66 1.53 1.60 1.59 1.34 1.21 1.20 1.30 1.40 1.41

GEFSSE_prec_meanprecacc_174.txt.gz
Total_Precipitation_Accumulation
1.56 1.17 1.97 1.86 1.65 1.40 1.28 1.31 1.36 1.37 1.37 1.31 1.24 1.08 0.92 0.83 0.78 0.72 0.66 0.62 0.61 0.64 0.72 0.75 0.72 0.73 0.65 0.64 0.66 0.72 0.72 0.70 0.70 0.60 0.56 0.58 0.63 0.71 0.87 1.03 1.29 1.67 1.25
1.02 0.92 1.75 1.93 1.74 1.55 1.47 1.34 1.28 1.30 1.29 1.22 1.16 1.07 0.92 0.80 0.74 0.70 0.66 0.62 0.60 0.59 0.64 0.69 0.72 0.77 0.75 0.73 0.80 0.86 0.80 0.75 0.81 0.78 0.84 0.92 0.80 0.77 0.79 0.96 1.38 1.64 1.22
0.83 0.79 1.19 1.79 1.78 1.67 1.61 1.45 1.26 1.20 1.11 1.01 1.01 0.91 0.84 0.75 0.67 0.63 0.64 0.64 0.61 0.57 0.58 0.64 0.72 0.78 0.80 0.85 0.89 0.90 0.89 0.88 0.89 0.91 1.29 1.79 1.34 0.96 0.94 0.99 1.07 1.11 1.10
0.67 0.70 0.93 1.49 1.54 1.51 1.48 1.27 1.16 1.07 0.95 0.95 0.94 0.87 0.82 0.76 0.70 0.67 0.68 0.61 0.58 0.57 0.61 0.66 0.71 0.79 0.83 0.85 0.83 0.80 0.82 0.88 0.98 0.96 1.33 1.77 1.73 1.31 1.12 1.12 1.00 0.99 1.11
0.56 0.69 1.08 1.45 1.42 1.36 1.27 1.15 1.13 1.01 0.90 0.91 0.92 0.89 0.87 0.81 0.77 0.70 0.69 0.67 0.64 0.65 0.68 0.69 0.72 0.77 0.83 0.85 0.82 0.78 0.82 1.02 1.01 0.91 1.16 1.48 1.85 1.51 1.19 1.20 1.11 1.06 1.15
0.71 0.73 0.91 1.17 1.22 1.20 1.02 0.96 1.02 0.95 0.91 0.86 0.81 0.81 0.81 0.77 0.76 0.72 0.74 0.74 0.71 0.71 0.75 0.78 0.82 0.84 0.84 0.85 0.84 0.90 0.99 1.05 0.93 1.07 1.24 1.46 1.73 1.48 1.15 1.09 1.17 1.22 1.31
0.68 0.65 0.72 1.03 1.06 1.04 0.95 0.96 1.06 0.98 0.92 0.82 0.78 0.83 0.84 0.78 0.77 0.76 0.78 0.77 0.75 0.72 0.73 0.79 0.83 0.85 0.80 0.82 0.85 0.91 0.99 0.95 0.98 1.19 1.26 1.44 1.45 1.34 1.13 1.04 1.18 1.25 1.35
0.84 0.73 0.73 1.01 1.04 0.97 0.97 0.95 1.02 1.06 0.94 0.83 0.80 0.78 0.76 0.75 0.73 0.73 0.74 0.76 0.77 0.75 0.77 0.78 0.79 0.76 0.70 0.74 0.77 0.81 0.93 0.88 0.86 1.03 1.14 1.37 1.46 1.35 1.07 1.01 1.09 1.20 1.34
1.17 1.07 0.98 0.99 0.93 0.96 0.99 0.93 1.09 1.22 1.07 0.90 0.81 0.77 0.71 0.68 0.65 0.64 0.66 0.73 0.76 0.79 0.76 0.73 0.77 0.76 0.73 0.72 0.73 0.82 0.94 0.88 0.78 0.93 0.94 1.27 1.51 1.37 1.15 1.04 1.05 1.21 1.33
1.15 1.09 1.08 1.13 1.10 1.09 1.10 1.17 1.31 1.62 1.50 1.12 0.91 0.78 0.73 0.66 0.64 0.67 0.64 0.68 0.79 0.84 0.85 0.83 0.84 0.83 0.85 0.79 0.78 0.88 0.94 0.74 0.72 0.73 0.83 1.09 1.56 1.43 1.18 1.04 1.00 1.04 1.14
0.89 0.92 0.97 1.02 1.02 1.05 1.02 1.18 1.46 1.76 1.81 1.46 1.16 1.00 0.83 0.58 0.60 0.69 0.65 0.78 0.90 0.95 0.98 1.01 1.02 0.95 0.94 0.85 0.86 0.90 0.76 0.56 0.78 0.82 0.90 1.17 1.46 1.44 1.16 0.94 0.85 0.89 0.93
0.68 0.63 0.65 0.67 0.71 0.75 0.81 1.08 1.31 1.38 1.58 1.36 1.30 1.15 1.00 0.93 0.88 0.70 0.68 0.88 1.03 1.05 1.04 1.08 1.12 0.96 0.80 0.65 0.71 0.76 0.54 0.52 0.71 0.76 0.81 1.28 1.61 1.56 1.24 1.01 0.92 0.91 0.87
0.62 0.57 0.51 0.50 0.51 0.58 0.72 0.94 1.15 1.28 1.44 1.44 1.40 1.33 1.33 1.27 0.94 0.78 0.86 0.92 1.00 1.01 0.89 0.92 0.93 0.76 0.61 0.56 0.64 0.60 0.50 0.53 0.65 0.74 0.90 1.30 1.67 1.67 1.32 1.10 1.08 1.01 0.98
0.54 0.61 0.54 0.41 0.40 0.42 0.50 0.70 0.90 1.10 1.29 1.32 1.14 1.06 1.19 1.21 1.01 0.89 1.02 1.11 1.13 1.11 1.09 1.09 1.03 0.87 0.66 0.61 0.63 0.63 0.57 0.62 0.69 0.76 0.92 1.06 1.47 1.65 1.52 1.30 1.26 1.14 1.16
0.54 0.61 0.62 0.53 0.43 0.41 0.46 0.55 0.61 0.89 1.06 1.21 1.25 1.03 1.15 1.19 1.12 1.00 0.94 1.11 1.10 1.13 1.15 1.15 1.15 1.01 0.90 0.79 0.76 0.69 0.73 0.72 0.70 0.67 0.83 0.89 1.14 1.49 1.62 1.57 1.53 1.35 1.34
0.50 0.57 0.59 0.61 0.57 0.52 0.51 0.53 0.52 0.57 0.68 0.79 0.76 0.73 0.92 1.04 1.02 1.02 0.89 0.95 1.04 1.17 1.35 1.36 1.21 1.11 1.03 0.95 0.94 0.89 0.87 0.83 0.80 0.68 0.78 0.85 0.80 0.95 1.24 1.58 1.76 1.62 1.52
0.44 0.49 0.53 0.59 0.64 0.64 0.64 0.72 0.64 0.59 0.64 0.64 0.60 0.61 0.72 0.83 0.86 0.98 0.97 0.94 0.98 1.19 1.38 1.47 1.38 1.27 1.12 1.05 1.04 1.01 0.92 0.94 0.93 0.83 0.83 0.92 0.78 0.75 0.98 1.40 1.75 1.83 1.74
0.40 0.39 0.41 0.45 0.51 0.55 0.61 0.68 0.73 0.73 0.75 0.71 0.74 0.70 0.66 0.80 0.92 1.04 1.08 1.01 1.03 1.21 1.38 1.52 1.58 1.54 1.41 1.32 1.25 1.16 1.11 1.19 1.08 0.97 0.93 0.97 1.06 0.95 0.90 1.07 1.35 1.62 1.84
0.38 0.33 0.32 0.33 0.34 0.37 0.43 0.54 0.65 0.72 0.80 0.87 0.88 0.87 0.85 0.90 0.93 1.07 1.23 1.25 1.24 1.34 1.39 1.40 1.49 1.46 1.49 1.48 1.34 1.31 1.25 1.33 1.32 1.14 1.13 1.15 1.20 1.17 1.03 0.88 0.98 1.03 1.40
0.32 0.31 0.30 0.31 0.31 0.27 0.31 0.45 0.56 0.63 0.71 0.87 0.94 1.01 1.27 1.37 1.16 1.12 1.24 1.26 1.31 1.46 1.48 1.59 1.74 1.62 1.52 1.61 1.51 1.43 1.38 1.35 1.32 1.32 1.35 1.37 1.37 1.25 1.20 1.04 1.03 0.84 0.95
0.18 0.17 0.19 0.24 0.31 0.29 0.26 0.33 0.44 0.53 0.67 0.81 0.98 1.05 1.28 1.39 1.29 1.31 1.31 1.31 1.33 1.39 1.43 1.61 1.94 1.89 1.71 1.62 1.80 1.77 1.68 1.49 1.40 1.40 1.41 1.53 1.54 1.37 1.34 1.39 1.26 1.04 0.86
0.11 0.10 0.12 0.16 0.25 0.32 0.36 0.41 0.53 0.71 0.83 0.93 1.07 1.14 1.25 1.28 1.27 1.21 1.35 1.44 1.39 1.49 1.57 1.72 1.97 2.11 1.90 1.74 2.03 2.41 2.19 1.93 1.61 1.43 1.43 1.37 1.46 1.47 1.40 1.29 1.23 1.16 1.01
0.07 0.08 0.13 0.20 0.33 0.50 0.66 0.88 1.13 1.41 1.53 1.42 1.27 1.35 1.48 1.56 1.52 1.45 1.53 1.66 1.56 1.58 1.64 1.69 1.76 2.13 2.24 2.05 2.02 2.49 2.35 2.20 2.12 1.66 1.35 1.22 1.41 1.52 1.53 1.41 1.31 1.33 1.26
0.15 0.22 0.30 0.42 0.58 0.74 0.95 1.17 1.43 1.66 1.83 1.84 1.86 1.90 1.89 1.84 1.74 1.63 1.63 1.67 1.67 1.72 1.67 1.55 1.69 2.04 2.44 2.44 2.26 2.07 1.94 1.93 2.10 1.99 1.48 1.23 1.31 1.45 1.62 1.52 1.45 1.45 1.41
0.33 0.45 0.55 0.77 0.93 1.07 1.13 1.23 1.45 1.56 1.63 1.74 1.89 1.94 1.93 1.86 1.74 1.60 1.54 1.59 1.65 1.74 1.74 1.78 1.92 2.19 2.42 2.59 2.53 2.28 2.05 1.86 1.56 1.73 1.72 1.52 1.32 1.27 1.35 1.44 1.54 1.51 1.44
0.62 0.84 0.97 1.07 1.16 1.16 1.14 1.16 1.30 1.44 1.53 1.61 1.74 1.80 1.73 1.60 1.57 1.53 1.51 1.48 1.45 1.52 1.62 1.78 2.00 2.13 2.30 2.50 2.51 2.24 2.07 1.94 1.77 1.68 1.55 1.62 1.60 1.35 1.22 1.21 1.32 1.43 1.43

GEFSSE_prec_meanprecacc_180.txt.gz
Total_Precipitation_Accumulation
1.60 1.22 2.10 2.06 1.83 1.56 1.42 1.44 1.53 1.57 1.58 1.51 1.46 1.28 1.09 0.98 0.89 0.80 0.74 0.69 0.67 0.71 0.81 0.83 0.79 0.78 0.69 0.67 0.69 0.74 0.75 0.74 0.74 0.64 0.59 0.60 0.65 0.73 0.91 1.07 1.32 1.71 1.31
1.08 1.00 1.91 2.16 1.95 1.74 1.62 1.51 1.48 1.50 1.50 1.40 1.33 1.21 1.06 0.92 0.84 0.78 0.74 0.70 0.67 0.65 0.73 0.79 0.80 0.83 0.80 0.78 0.85 0.89 0.83 0.78 0.85 0.83 0.88 0.95 0.83 0.81 0.84 1.00 1.42 1.70 1.28
0.92 0.88 1.38 2.06 2.01 1.87 1.78 1.61 1.46 1.40 1.31 1.21 1.16 1.03 0.97 0.86 0.76 0.70 0.72 0.72 0.69 0.64 0.66 0.73 0.78 0.84 0.85 0.90 0.93 0.95 0.92 0.92 0.94 0.97 1.33 1.83 1.38 1.03 1.01 1.05 1.13 1.16 1.15
0.73 0.77 1.04 1.64 1.70 1.67 1.63 1.44 1.37 1.24 1.13 1.16 1.13 0.99 0.92 0.87 0.81 0.77 0.76 0.69 0.65 0.64 0.69 0.72 0.75 0.83 0.88 0.90 0.87 0.84 0.86 0.93 1.03 1.01 1.36 1.81 1.78 1.36 1.19 1.18 1.07 1.05 1.17
0.60 0.76 1.17 1.55 1.55 1.51 1.42 1.28 1.27 1.14 1.02 1.03 1.04 1.01 0.98 0.89 0.83 0.77 0.75 0.74 0.71 0.72 0.74 0.74 0.77 0.81 0.88 0.91 0.86 0.81 0.86 1.08 1.06 0.94 1.19 1.51 1.92 1.58 1.26 1.26 1.18 1.13 1.23
0.75 0.79 0.99 1.27 1.32 1.30 1.13 1.10 1.15 1.06 1.03 0.97 0.91 0.92 0.92 0.86 0.83 0.78 0.79 0.80 0.77 0.78 0.81 0.84 0.88 0.88 0.88 0.90 0.88 0.93 1.04 1.10 0.96 1.10 1.27 1.50 1.79 1.54 1.21 1.15 1.23 1.32 1.43
0.72 0.70 0.77 1.09 1.12 1.10 1.02 1.03 1.14 1.06 0.99 0.91 0.87 0.94 0.94 0.87 0.85 0.82 0.84 0.82 0.81 0.78 0.80 0.85 0.89 0.90 0.84 0.84 0.88 0.94 1.04 1.00 1.01 1.22 1.29 1.50 1.51 1.39 1.17 1.07 1.22 1.32 1.42
0.89 0.77 0.76 1.05 1.09 1.03 1.02 1.00 1.07 1.11 0.99 0.89 0.86 0.88 0.85 0.82 0.78 0.77 0.78 0.80 0.82 0.82 0.85 0.85 0.85 0.82 0.74 0.76 0.79 0.84 0.98 0.91 0.88 1.05 1.18 1.43 1.53 1.39 1.09 1.03 1.11 1.23 1.37
1.21 1.09 0.99 1.01 0.97 1.01 1.04 0.99 1.13 1.26 1.11 0.94 0.84 0.83 0.76 0.72 0.68 0.67 0.69 0.79 0.81 0.85 0.83 0.80 0.83 0.80 0.76 0.75 0.75 0.86 0.99 0.91 0.81 0.96 0.96 1.33 1.58 1.41 1.17 1.05 1.07 1.23 1.34
1.18 1.11 1.10 1.15 1.12 1.11 1.12 1.20 1.35 1.65 1.53 1.16 0.95 0.83 0.77 0.69 0.66 0.69 0.66 0.72 0.84 0.91 0.92 0.89 0.90 0.88 0.89 0.83 0.82 0.92 0.98 0.76 0.74 0.74 0.87 1.15 1.61 1.47 1.21 1.07 1.02 1.07 1.16
0.90 0.93 0.99 1.03 1.04 1.06 1.03 1.19 1.47 1.78 1.84 1.49 1.20 1.04 0.86 0.59 0.61 0.71 0.67 0.82 0.94 1.00 1.06 1.10 1.10 1.03 1.00 0.89 0.90 0.94 0.79 0.58 0.80 0.84 0.95 1.24 1.52 1.50 1.22 0.99 0.91 0.94 0.97
0.68 0.64 0.65 0.68 0.73 0.77 0.82 1.09 1.32 1.39 1.60 1.38 1.33 1.17 1.02 0.94 0.88 0.71 0.69 0.92 1.09 1.11 1.09 1.15 1.21 1.04 0.85 0.68 0.75 0.80 0.58 0.54 0.73 0.78 0.87 1.36 1.69 1.64 1.31 1.09 1.01 0.99 0.93
0.62 0.58 0.51 0.50 0.53 0.60 0.74 0.95 1.16 1.30 1.46 1.45 1.42 1.35 1.34 1.27 0.94 0.79 0.87 0.93 1.02 1.03 0.92 0.97 0.99 0.83 0.67 0.60 0.68 0.65 0.54 0.56 0.68 0.78 0.96 1.39 1.77 1.76 1.39 1.16 1.15 1.08 1.03
0.55 0.62 0.55 0.42 0.41 0.43 0.52 0.72 0.92 1.12 1.31 1.34 1.16 1.07 1.20 1.21 1.02 0.89 1.02 1.11 1.13 1.12 1.13 1.13 1.07 0.93 0.71 0.65 0.65 0.65 0.59 0.64 0.71 0.78 0.97 1.13 1.56 1.74 1.61 1.39 1.35 1.23 1.24
0.55 0.62 0.62 0.53 0.44 0.43 0.48 0.57 0.62 0.90 1.08 1.24 1.27 1.04 1.16 1.20 1.13 1.00 0.94 1.11 1.10 1.14 1.18 1.20 1.20 1.06 0.94 0.83 0.77 0.70 0.75 0.74 0.71 0.68 0.86 0.93 1.18 1.54 1.72 1.70 1.66 1.48 1.42
0.50 0.57 0.59 0.61 0.58 0.54 0.52 0.54 0.53 0.58 0.69 0.80 0.76 0.73 0.92 1.04 1.02 1.02 0.89 0.96 1.05 1.19 1.38 1.42 1.26 1.15 1.07 0.99 0.97 0.91 0.90 0.85 0.81 0.69 0.80 0.87 0.83 0.98 1.30 1.69 1.87 1.72 1.60
0.47 0.51 0.55 0.60 0.65 0.65 0.65 0.73 0.66 0.61 0.65 0.64 0.60 0.61 0.72 0.83 0.86 0.98 0.97 0.95 0.99 1.21 1.44 1.56 1.45 1.32 1.15 1.09 1.07 1.04 0.95 0.97 0.95 0.86 0.86 0.95 0.81 0.77 1.00 1.44 1.82 1.92 1.83
0.42 0.41 0.44 0.47 0.51 0.56 0.61 0.68 0.76 0.75 0.76 0.72 0.74 0.70 0.66 0.80 0.92 1.04 1.09 1.02 1.04 1.23 1.43 1.62 1.66 1.60 1.46 1.36 1.29 1.19 1.14 1.22 1.11 1.00 0.96 1.01 1.10 0.96 0.93 1.12 1.41 1.70 1.93
0.39 0.34 0.32 0.33 0.34 0.37 0.43 0.54 0.66 0.74 0.81 0.87 0.88 0.87 0.85 0.90 0.93 1.08 1.24 1.25 1.26 1.36 1.43 1.46 1.54 1.52 1.53 1.52 1.37 1.35 1.28 1.36 1.35 1.18 1.19 1.23 1.27 1.21 1.08 0.95 1.04 1.10 1.46
0.32 0.32 0.31 0.31 0.31 0.28 0.32 0.45 0.56 0.63 0.71 0.87 0.95 1.01 1.28 1.37 1.16 1.13 1.25 1.27 1.33 1.48 1.51 1.63 1.79 1.67 1.56 1.66 1.54 1.45 1.41 1.38 1.36 1.37 1.41 1.43 1.43 1.29 1.25 1.08 1.07 0.89 0.98
0.18 0.17 0.19 0.24 0.31 0.30 0.26 0.33 0.44 0.53 0.67 0.81 0.98 1.05 1.28 1.39 1.29 1.31 1.32 1.31 1.34 1.41 1.47 1.64 1.97 1.93 1.73 1.65 1.83 1.81 1.72 1.53 1.44 1.45 1.46 1.57 1.58 1.40 1.39 1.43 1.30 1.07 0.87
0.11 0.10 0.12 0.16 0.25 0.32 0.36 0.41 0.53 0.71 0.83 0.93 1.07 1.14 1.25 1.28 1.27 1.21 1.36 1.45 1.40 1.51 1.59 1.74 1.99 2.14 1.92 1.75 2.06 2.47 2.25 2.00 1.66 1.47 1.46 1.39 1.49 1.50 1.43 1.32 1.25 1.17 1.02
0.08 0.08 0.13 0.21 0.34 0.50 0.66 0.88 1.13 1.41 1.53 1.42 1.27 1.35 1.48 1.56 1.53 1.46 1.53 1.66 1.57 1.59 1.65 1.70 1.77 2.16 2.27 2.07 2.04 2.54 2.40 2.25 2.17 1.70 1.37 1.24 1.44 1.55 1.55 1.43 1.32 1.34 1.27
0.15 0.22 0.31 0.42 0.58 0.74 0.95 1.17 1.43 1.67 1.83 1.84 1.86 1.91 1.89 1.84 1.74 1.63 1.63 1.67 1.67 1.72 1.67 1.56 1.70 2.07 2.46 2.47 2.29 2.10 1.97 1.96 2.14 2.04 1.51 1.25 1.33 1.46 1.63 1.53 1.46 1.45 1.41
0.33 0.45 0.56 0.77 0.93 1.07 1.13 1.23 1.45 1.56 1.63 1.74 1.89 1.94 1.94 1.86 1.75 1.61 1.54 1.59 1.65 1.74 1.74 1.78 1.93 2.20 2.44 2.62 2.55 2.31 2.07 1.88 1.58 1.76 1.75 1.54 1.33 1.28 1.35 1.45 1.54 1.51 1.44
0.62 0.84 0.98 1.08 1.17 1.16 1.14 1.16 1.30 1.44 1.53 1.61 1.74 1.80 1.74 1.61 1.57 1.53 1.51 1.48 1.45 1.52 1.63 1.79 2.01 2.14 2.32 2.53 2.53 2.26 2.09 1.97 1.82 1.72 1.58 1.64 1.62 1.36 1.23 1.22 1.32 1.43 1.43

GEFSSE_prec_meanprecacc_186.txt.gz
Total_Precipitation_Accumulation
1.75 1.30 2.16 2.13 1.92 1.67 1.52 1.55 1.64 1.70 1.72 1.64 1.57 1.44 1.26 1.12 1.00 0.90 0.83 0.76 0.74 0.78 0.90 0.92 0.86 0.85 0.74 0.71 0.74 0.79 0.79 0.77 0.77 0.67 0.62 0.62 0.67 0.76 0.94 1.10 1.39 1.80 1.37
1.18 1.06 1.98 2.22 2.03 1.83 1.72 1.65 1.63 1.65 1.67 1.54 1.44 1.37 1.20 1.03 0.93 0.87 0.81 0.77 0.73 0.71 0.81 0.86 0.86 0.89 0.86 0.83 0.90 0.95 0.87 0.80 0.88 0.85 0.91 0.98 0.85 0.83 0.86 1.03 1.47 1.76 1.33
1.00 0.96 1.46 2.13 2.09 1.96 1.87 1.72 1.64 1.60 1.49 1.33 1.26 1.12 1.05 0.93 0.83 0.79 0.79 0.80 0.76 0.69 0.73 0.79 0.84 0.89 0.89 0.94 0.97 0.99 0.96 0.96 0.98 1.01 1.41 1.92 1.44 1.06 1.03 1.07 1.15 1.19 1.18
0.82 0.86 1.12 1.71 1.78 1.76 1.73 1.58 1.54 1.41 1.27 1.30 1.29 1.08 0.98 0.93 0.89 0.87 0.87 0.77 0.72 0.69 0.75 0.79 0.82 0.90 0.94 0.95 0.90 0.88 0.90 0.97 1.07 1.08 1.49 1.93 1.88 1.42 1.25 1.22 1.10 1.07 1.19
0.70 0.85 1.24 1.63 1.64 1.64 1.57 1.41 1.40 1.26 1.14 1.15 1.18 1.10 1.06 0.98 0.91 0.86 0.86 0.84 0.78 0.76 0.78 0.78 0.84 0.90 0.95 0.98 0.92 0.86 0.89 1.11 1.11 1.03 1.31 1.64 2.03 1.66 1.33 1.32 1.22 1.17 1.26
0.83 0.85 1.04 1.34 1.41 1.41 1.24 1.20 1.24 1.17 1.14 1.06 0.99 0.99 1.01 0.96 0.92 0.85 0.87 0.88 0.83 0.82 0.85 0.87 0.93 0.95 0.94 0.95 0.94 0.99 1.07 1.13 1.03 1.19 1.39 1.62 1.88 1.62 1.27 1.18 1.26 1.36 1.46
0.75 0.73 0.82 1.15 1.18 1.17 1.09 1.11 1.22 1.16 1.11 0.99 0.93 1.01 1.07 0.98 0.93 0.89 0.90 0.89 0.87 0.83 0.85 0.90 0.95 0.96 0.88 0.88 0.91 0.97 1.07 1.03 1.08 1.30 1.40 1.58 1.56 1.46 1.23 1.10 1.25 1.35 1.47
0.90 0.79 0.79 1.08 1.13 1.07 1.07 1.05 1.12 1.18 1.08 0.97 0.93 0.95 0.95 0.90 0.84 0.84 0.84 0.86 0.88 0.86 0.89 0.89 0.93 0.90 0.78 0.79 0.81 0.87 1.01 0.95 0.92 1.10 1.26 1.50 1.58 1.46 1.14 1.06 1.13 1.26 1.42
1.23 1.12 1.02 1.03 0.99 1.04 1.07 1.02 1.18 1.32 1.17 1.01 0.90 0.88 0.82 0.78 0.74 0.73 0.76 0.85 0.87 0.89 0.87 0.86 0.92 0.88 0.81 0.78 0.79 0.89 1.02 0.96 0.85 1.01 1.04 1.39 1.64 1.48 1.21 1.08 1.09 1.26 1.39
1.20 1.15 1.14 1.17 1.15 1.15 1.16 1.24 1.40 1.70 1.57 1.20 0.98 0.85 0.79 0.73 0.69 0.73 0.70 0.78 0.89 0.95 0.96 0.95 0.99 0.95 0.94 0.87 0.86 0.95 1.01 0.81 0.80 0.79 0.95 1.21 1.67 1.54 1.26 1.09 1.04 1.10 1.18
0.93 0.96 1.02 1.07 1.07 1.10 1.06 1.22 1.51 1.81 1.86 1.52 1.22 1.06 0.88 0.62 0.62 0.72 0.70 0.85 0.98 1.04 1.09 1.16 1.18 1.10 1.04 0.93 0.93 0.97 0.83 0.63 0.85 0.88 0.99 1.30 1.59 1.58 1.28 1.04 0.96 1.00 1.00
0.71 0.66 0.66 0.69 0.75 0.79 0.84 1.11 1.33 1.40 1.60 1.39 1.35 1.20 1.05 0.97 0.90 0.72 0.71 0.94 1.13 1.13 1.12 1.21 1.32 1.14 0.92 0.72 0.77 0.84 0.64 0.59 0.75 0.81 0.92 1.44 1.77 1.71 1.36 1.13 1.07 1.05 0.97
0.63 0.58 0.52 0.51 0.55 0.62 0.75 0.96 1.16 1.30 1.46 1.46 1.43 1.36 1.35 1.30 0.96 0.80 0.88 0.94 1.05 1.06 0.95 1.01 1.07 0.90 0.73 0.66 0.74 0.70 0.58 0.59 0.71 0.82 1.02 1.49 1.86 1.83 1.45 1.19 1.20 1.14 1.07
0.55 0.62 0.55 0.42 0.42 0.45 0.53 0.73 0.93 1.13 1.32 1.35 1.17 1.09 1.21 1.23 1.03 0.90 1.04 1.13 1.16 1.15 1.16 1.16 1.11 0.97 0.76 0.70 0.69 0.69 0.63 0.67 0.74 0.82 1.01 1.19 1.62 1.81 1.67 1.44 1.39 1.27 1.28
0.55 0.62 0.63 0.53 0.45 0.44 0.49 0.57 0.63 0.91 1.10 1.25 1.28 1.05 1.17 1.21 1.13 1.01 0.95 1.13 1.12 1.16 1.21 1.22 1.22 1.10 0.99 0.87 0.82 0.73 0.78 0.77 0.74 0.71 0.88 0.95 1.21 1.58 1.78 1.76 1.72 1.52 1.46
0.50 0.57 0.59 0.61 0.58 0.55 0.53 0.55 0.54 0.58 0.69 0.81 0.77 0.74 0.93 1.05 1.02 1.03 0.90 0.97 1.06 1.20 1.41 1.45 1.28 1.19 1.11 1.03 1.01 0.95 0.93 0.88 0.85 0.72 0.83 0.89 0.84 1.00 1.35 1.74 1.94 1.80 1.67
0.47 0.52 0.55 0.60 0.65 0.66 0.65 0.73 0.66 0.61 0.65 0.64 0.61 0.62 0.73 0.84 0.86 0.99 0.98 0.96 1.00 1.22 1.45 1.58 1.47 1.35 1.18 1.13 1.12 1.09 1.00 1.01 0.98 0.89 0.90 1.00 0.84 0.78 1.02 1.47 1.88 1.99 1.90
0.42 0.41 0.44 0.47 0.52 0.57 0.61 0.68 0.76 0.75 0.76 0.72 0.75 0.71 0.67 0.80 0.92 1.05 1.10 1.04 1.04 1.24 1.46 1.64 1.68 1.63 1.50 1.41 1.33 1.24 1.17 1.25 1.12 1.03 1.01 1.08 1.16 0.99 0.95 1.14 1.43 1.74 1.98
0.39 0.34 0.32 0.33 0.34 0.38 0.43 0.54 0.66 0.74 0.81 0.87 0.89 0.87 0.85 0.90 0.94 1.08 1.25 1.27 1.27 1.38 1.46 1.49 1.57 1.56 1.58 1.57 1.40 1.38 1.31 1.39 1.39 1.25 1.30 1.30 1.32 1.26 1.11 0.97 1.06 1.14 1.53
0.32 0.32 0.31 0.32 0.31 0.28 0.32 0.45 0.56 0.63 0.72 0.88 0.95 1.02 1.28 1.37 1.16 1.13 1.26 1.28 1.34 1.51 1.54 1.66 1.83 1.73 1.61 1.70 1.57 1.49 1.44 1.41 1.40 1.44 1.50 1.50 1.47 1.32 1.27 1.10 1.09 0.93 1.06
0.18 0.17 0.19 0.24 0.31 0.30 0.26 0.33 0.44 0.54 0.68 0.81 0.98 1.05 1.29 1.39 1.30 1.32 1.32 1.33 1.36 1.43 1.48 1.65 1.99 1.98 1.79 1.69 1.88 1.87 1.77 1.57 1.49 1.50 1.53 1.63 1.63 1.44 1.40 1.44 1.31 1.09 0.91
0.11 0.10 0.12 0.16 0.25 0.33 0.36 0.41 0.53 0.71 0.83 0.93 1.07 1.14 1.26 1.28 1.28 1.21 1.36 1.46 1.41 1.52 1.60 1.75 2.01 2.19 1.98 1.80 2.12 2.53 2.32 2.05 1.71 1.51 1.50 1.43 1.54 1.56 1.46 1.34 1.27 1.18 1.04
0.08 0.08 0.13 0.21 0.34 0.50 0.66 0.88 1.13 1.41 1.53 1.43 1.29 1.37 1.49 1.56 1.53 1.46 1.53 1.67 1.58 1.60 1.67 1.71 1.79 2.20 2.34 2.12 2.08 2.60 2.48 2.30 2.22 1.73 1.39 1.26 1.46 1.58 1.57 1.44 1.34 1.35 1.28
0.15 0.22 0.31 0.42 0.58 0.74 0.95 1.17 1.43 1.68 1.84 1.86 1.87 1.92 1.89 1.85 1.75 1.63 1.64 1.68 1.68 1.73 1.68 1.57 1.72 2.11 2.53 2.54 2.34 2.14 2.01 1.99 2.18 2.07 1.54 1.28 1.36 1.49 1.64 1.54 1.47 1.46 1.42
0.33 0.45 0.56 0.77 0.93 1.07 1.14 1.23 1.46 1.57 1.64 1.75 1.89 1.95 1.94 1.87 1.76 1.61 1.55 1.60 1.67 1.75 1.75 1.80 1.96 2.24 2.49 2.69 2.62 2.37 2.11 1.90 1.60 1.79 1.79 1.59 1.37 1.30 1.37 1.46 1.55 1.53 1.46
0.62 0.84 0.98 1.08 1.17 1.16 1.14 1.16 1.30 1.44 1.54 1.62 1.76 1.81 1.75 1.63 1.59 1.53 1.51 1.49 1.45 1.52 1.63 1.80 2.03 2.17 2.35 2.57 2.57 2.31 2.14 2.02 1.86 1.74 1.61 1.67 1.66 1.39 1.25 1.23 1.33 1.44 1.44

GEFSSE_prec_meanprecacc_192.txt.gz
Total_Precipitation_Accumulation
1.87 1.40 2.28 2.20 1.99 1.74 1.57 1.60 1.68 1.72 1.75 1.68 1.60 1.47 1.30 1.18 1.05 0.94 0.87 0.80 0.79 0.84 0.95 1.00 0.93 0.90 0.79 0.75 0.77 0.83 0.84 0.83 0.82 0.72 0.66 0.67 0.71 0.81 1.00 1.14 1.41 1.82 1.43
1.28 1.16 2.05 2.26 2.07 1.88 1.77 1.71 1.67 1.69 1.70 1.56 1.47 1.40 1.25 1.09 0.97 0.90 0.85 0.83 0.78 0.75 0.83 0.89 0.90 0.93 0.90 0.87 0.94 0.99 0.93 0.86 0.93 0.91 0.96 1.01 0.89 0.87 0.90 1.07 1.50 1.79 1.36
1.09 1.03 1.52 2.17 2.12 1.99 1.93 1.80 1.69 1.65 1.53 1.37 1.31 1.17 1.09 0.98 0.88 0.81 0.82 0.83 0.81 0.73 0.75 0.81 0.87 0.93 0.93 0.98 1.02 1.04 1.02 1.01 1.03 1.07 1.45 1.93 1.46 1.10 1.07 1.10 1.18 1.21 1.21
0.87 0.90 1.17 1.75 1.81 1.79 1.78 1.65 1.59 1.46 1.31 1.32 1.33 1.14 1.02 0.96 0.91 0.89 0.89 0.80 0.77 0.72 0.76 0.81 0.85 0.94 0.98 0.99 0.95 0.93 0.96 1.03 1.13 1.13 1.51 1.96 1.91 1.48 1.29 1.26 1.13 1.10 1.22
0.73 0.87 1.28 1.67 1.67 1.67 1.62 1.47 1.46 1.31 1.17 1.17 1.21 1.14 1.10 1.00 0.93 0.88 0.88 0.87 0.83 0.80 0.80 0.80 0.86 0.92 0.99 1.01 0.95 0.90 0.95 1.17 1.16 1.07 1.33 1.67 2.08 1.71 1.37 1.36 1.25 1.20 1.28
0.85 0.87 1.07 1.39 1.45 1.47 1.33 1.29 1.31 1.20 1.16 1.08 1.02 1.03 1.05 1.00 0.95 0.89 0.90 0.91 0.86 0.85 0.87 0.89 0.95 0.98 0.97 0.97 0.96 1.03 1.11 1.18 1.06 1.21 1.40 1.63 1.91 1.67 1.30 1.20 1.28 1.39 1.49
0.77 0.74 0.84 1.20 1.24 1.25 1.17 1.16 1.25 1.20 1.14 1.02 0.96 1.04 1.13 1.04 0.98 0.94 0.95 0.92 0.89 0.85 0.88 0.91 0.97 0.99 0.90 0.91 0.96 1.01 1.11 1.09 1.12 1.32 1.41 1.59 1.58 1.51 1.26 1.13 1.28 1.39 1.50
0.91 0.79 0.80 1.13 1.19 1.14 1.11 1.08 1.15 1.22 1.13 1.01 0.97 0.99 1.02 0.99 0.90 0.90 0.89 0.92 0.91 0.89 0.90 0.91 0.95 0.92 0.81 0.84 0.87 0.92 1.06 1.01 0.97 1.14 1.28 1.51 1.62 1.51 1.17 1.09 1.15 1.28 1.45
1.24 1.12 1.03 1.05 1.05 1.09 1.10 1.05 1.21 1.36 1.22 1.06 0.95 0.93 0.87 0.85 0.81 0.80 0.82 0.91 0.90 0.91 0.88 0.88 0.94 0.91 0.85 0.82 0.84 0.96 1.11 1.04 0.89 1.06 1.07 1.42 1.69 1.53 1.25 1.11 1.12 1.28 1.40
1.21 1.16 1.15 1.19 1.17 1.16 1.18 1.27 1.42 1.73 1.61 1.23 1.02 0.89 0.84 0.77 0.74 0.77 0.75 0.83 0.93 0.98 0.99 0.99 1.03 0.99 0.99 0.92 0.92 1.03 1.11 0.88 0.83 0.84 0.99 1.27 1.73 1.59 1.28 1.12 1.07 1.13 1.20
0.93 0.97 1.03 1.09 1.09 1.12 1.08 1.25 1.53 1.82 1.88 1.53 1.24 1.08 0.90 0.63 0.64 0.74 0.72 0.89 1.02 1.08 1.13 1.20 1.23 1.15 1.09 0.99 1.01 1.06 0.90 0.68 0.89 0.92 1.05 1.38 1.65 1.62 1.31 1.07 0.99 1.04 1.03
0.72 0.68 0.70 0.71 0.77 0.81 0.86 1.12 1.34 1.41 1.61 1.40 1.35 1.21 1.05 0.97 0.90 0.73 0.73 0.99 1.17 1.17 1.16 1.26 1.38 1.18 0.95 0.75 0.82 0.89 0.70 0.65 0.80 0.86 0.99 1.52 1.83 1.76 1.40 1.17 1.10 1.08 0.99
0.64 0.61 0.56 0.53 0.56 0.63 0.76 0.97 1.17 1.31 1.47 1.47 1.44 1.37 1.36 1.30 0.97 0.81 0.89 0.97 1.08 1.09 0.96 1.05 1.13 0.94 0.76 0.67 0.76 0.73 0.63 0.65 0.75 0.85 1.08 1.56 1.94 1.90 1.50 1.23 1.24 1.17 1.10
0.55 0.63 0.58 0.43 0.42 0.45 0.54 0.74 0.93 1.14 1.33 1.36 1.18 1.10 1.22 1.24 1.05 0.91 1.05 1.14 1.17 1.16 1.17 1.18 1.15 1.00 0.79 0.72 0.74 0.74 0.69 0.73 0.78 0.85 1.04 1.24 1.70 1.90 1.75 1.50 1.45 1.32 1.31
0.55 0.62 0.63 0.54 0.45 0.44 0.49 0.58 0.63 0.92 1.11 1.25 1.28 1.06 1.18 1.22 1.15 1.02 0.96 1.14 1.13 1.17 1.22 1.24 1.25 1.12 1.02 0.91 0.88 0.81 0.86 0.82 0.78 0.75 0.90 0.98 1.24 1.64 1.86 1.84 1.80 1.59 1.51
0.50 0.57 0.60 0.61 0.58 0.55 0.53 0.55 0.54 0.59 0.70 0.82 0.77 0.74 0.93 1.06 1.04 1.04 0.90 0.97 1.08 1.22 1.42 1.47 1.30 1.20 1.14 1.07 1.07 1.02 1.00 0.93 0.89 0.77 0.85 0.90 0.85 1.03 1.39 1.79 2.02 1.87 1.73
0.47 0.52 0.55 0.60 0.65 0.66 0.66 0.73 0.66 0.61 0.66 0.65 0.61 0.62 0.73 0.85 0.88 0.99 1.00 0.97 1.01 1.23 1.48 1.61 1.48 1.36 1.20 1.18 1.17 1.15 1.05 1.05 1.01 0.91 0.92 1.02 0.85 0.80 1.05 1.50 1.93 2.06 1.95
0.42 0.41 0.44 0.47 0.52 0.57 0.61 0.68 0.76 0.76 0.76 0.72 0.75 0.72 0.67 0.81 0.93 1.05 1.11 1.05 1.05 1.26 1.48 1.66 1.69 1.65 1.52 1.44 1.37 1.29 1.21 1.29 1.16 1.07 1.05 1.10 1.19 1.02 0.98 1.17 1.47 1.79 2.01
0.39 0.34 0.32 0.34 0.35 0.38 0.43 0.54 0.66 0.74 0.81 0.87 0.89 0.88 0.86 0.91 0.94 1.09 1.26 1.28 1.27 1.39 1.47 1.50 1.59 1.58 1.59 1.60 1.44 1.41 1.34 1.43 1.43 1.29 1.33 1.33 1.35 1.28 1.14 1.01 1.10 1.20 1.56
0.33 0.32 0.31 0.32 0.31 0.28 0.32 0.45 0.56 0.63 0.72 0.88 0.95 1.02 1.28 1.38 1.16 1.14 1.27 1.29 1.35 1.52 1.56 1.66 1.84 1.75 1.64 1.74 1.60 1.52 1.47 1.45 1.43 1.48 1.53 1.52 1.49 1.34 1.30 1.14 1.15 1.01 1.13
0.18 0.17 0.19 0.24 0.32 0.30 0.26 0.33 0.44 0.54 0.68 0.81 0.98 1.05 1.29 1.39 1.30 1.32 1.33 1.33 1.38 1.44 1.49 1.66 2.00 2.00 1.82 1.72 1.91 1.89 1.79 1.60 1.54 1.55 1.55 1.65 1.64 1.46 1.42 1.47 1.34 1.12 0.95
0.11 0.10 0.12 0.16 0.25 0.33 0.36 0.41 0.53 0.71 0.84 0.93 1.07 1.14 1.26 1.28 1.28 1.22 1.37 1.46 1.43 1.53 1.61 1.76 2.03 2.20 2.00 1.82 2.14 2.55 2.34 2.07 1.74 1.54 1.53 1.46 1.56 1.57 1.47 1.35 1.28 1.19 1.05
0.08 0.08 0.13 0.21 0.34 0.51 0.66 0.89 1.13 1.41 1.54 1.43 1.29 1.37 1.49 1.57 1.54 1.47 1.54 1.67 1.58 1.61 1.69 1.72 1.81 2.22 2.35 2.14 2.10 2.62 2.50 2.31 2.23 1.76 1.41 1.28 1.48 1.59 1.58 1.45 1.35 1.36 1.29
0.16 0.22 0.31 0.42 0.58 0.75 0.96 1.18 1.43 1.68 1.84 1.86 1.88 1.92 1.90 1.85 1.75 1.64 1.64 1.68 1.69 1.74 1.70 1.58 1.73 2.12 2.54 2.55 2.35 2.17 2.03 2.00 2.19 2.09 1.56 1.30 1.38 1.50 1.65 1.55 1.48 1.47 1.44
0.34 0.46 0.56 0.78 0.94 1.08 1.15 1.24 1.47 1.57 1.64 1.75 1.90 1.95 1.95 1.88 1.76 1.62 1.55 1.61 1.67 1.76 1.76 1.81 1.98 2.26 2.50 2.70 2.64 2.39 2.12 1.92 1.61 1.80 1.81 1.60 1.38 1.31 1.38 1.46 1.56 1.54 1.47
0.62 0.84 0.98 1.09 1.18 1.16 1.16 1.18 1.31 1.45 1.54 1.63 1.76 1.82 1.76 1.64 1.60 1.54 1.52 1.50 1.46 1.53 1.64 1.81 2.05 2.18 2.36 2.57 2.59 2.32 2.15 2.03 1.86 1.75 1.62 1.69 1.67 1.39 1.26 1.23 1.34 1.44 1.44

GEFSSE_prec_meanprecacc_198.txt.gz
Total_Precipitation_Accumulation
1.95 1.49 2.45 2.39 2.15 1.87 1.68 1.71 1.78 1.81 1.85 1.77 1.69 1.54 1.40 1.29 1.11 1.00 0.93 0.86 0.85 0.91 1.02 1.07 1.00 0.97 0.86 0.82 0.84 0.89 0.90 0.87 0.87 0.76 0.71 0.72 0.76 0.87 1.06 1.21 1.44 1.85 1.47
1.34 1.25 2.17 2.41 2.19 1.98 1.88 1.82 1.77 1.80 1.83 1.66 1.54 1.47 1.32 1.17 1.03 0.95 0.90 0.88 0.84 0.81 0.88 0.96 0.97 0.99 0.97 0.92 1.00 1.05 0.99 0.93 0.99 0.96 0.99 1.04 0.93 0.92 0.96 1.13 1.54 1.81 1.39
1.15 1.11 1.63 2.31 2.22 2.07 2.04 1.92 1.82 1.77 1.65 1.48 1.41 1.26 1.15 1.04 0.95 0.87 0.87 0.90 0.88 0.78 0.78 0.87 0.94 0.99 0.99 1.04 1.08 1.11 1.10 1.08 1.08 1.10 1.47 1.95 1.48 1.15 1.12 1.15 1.23 1.25 1.24
0.93 0.97 1.25 1.88 1.91 1.87 1.87 1.76 1.70 1.55 1.40 1.43 1.42 1.23 1.09 1.01 0.96 0.95 0.94 0.88 0.84 0.77 0.79 0.84 0.93 1.01 1.04 1.05 1.01 1.00 1.03 1.08 1.18 1.17 1.53 1.98 1.93 1.53 1.36 1.33 1.19 1.15 1.25
0.77 0.92 1.36 1.78 1.75 1.75 1.71 1.55 1.54 1.39 1.23 1.23 1.28 1.22 1.16 1.05 0.97 0.94 0.94 0.94 0.89 0.85 0.84 0.84 0.90 0.97 1.04 1.07 1.03 0.98 1.00 1.22 1.20 1.09 1.34 1.69 2.12 1.77 1.43 1.41 1.29 1.25 1.33
0.88 0.90 1.14 1.50 1.55 1.58 1.48 1.40 1.38 1.27 1.22 1.14 1.09 1.13 1.14 1.07 1.01 0.94 0.99 0.96 0.91 0.90 0.92 0.94 0.99 1.02 1.01 1.03 1.03 1.09 1.16 1.21 1.07 1.21 1.41 1.64 1.95 1.73 1.34 1.23 1.32 1.46 1.56
0.79 0.76 0.88 1.31 1.35 1.38 1.30 1.28 1.34 1.27 1.19 1.06 1.02 1.12 1.22 1.13 1.05 1.00 1.02 0.98 0.94 0.91 0.92 0.96 1.01 1.03 0.94 0.97 1.02 1.06 1.16 1.12 1.13 1.32 1.41 1.60 1.61 1.55 1.29 1.18 1.33 1.46 1.57
0.92 0.81 0.82 1.22 1.29 1.24 1.22 1.19 1.24 1.30 1.20 1.07 1.03 1.05 1.09 1.07 0.99 0.98 0.96 0.98 0.96 0.93 0.94 0.95 0.99 0.98 0.87 0.89 0.92 0.99 1.12 1.04 0.98 1.15 1.30 1.54 1.67 1.56 1.22 1.13 1.20 1.34 1.51
1.25 1.14 1.05 1.10 1.12 1.18 1.22 1.17 1.32 1.44 1.31 1.14 1.04 1.02 0.96 0.94 0.89 0.89 0.89 0.98 0.97 0.96 0.93 0.92 0.99 1.00 0.92 0.87 0.90 1.02 1.18 1.08 0.91 1.08 1.10 1.47 1.76 1.60 1.30 1.15 1.16 1.33 1.45
1.22 1.17 1.19 1.25 1.24 1.24 1.26 1.36 1.51 1.82 1.70 1.32 1.09 0.96 0.90 0.82 0.81 0.87 0.83 0.89 1.00 1.05 1.08 1.07 1.11 1.08 1.05 0.98 1.00 1.11 1.15 0.91 0.86 0.85 1.02 1.32 1.81 1.66 1.33 1.16 1.10 1.16 1.24
0.93 0.97 1.06 1.13 1.13 1.17 1.14 1.32 1.60 1.90 1.96 1.60 1.30 1.14 0.93 0.65 0.66 0.79 0.83 0.97 1.09 1.15 1.23 1.31 1.32 1.23 1.15 1.05 1.09 1.13 0.93 0.70 0.91 0.94 1.08 1.43 1.71 1.68 1.37 1.14 1.04 1.07 1.05
0.73 0.68 0.72 0.75 0.81 0.85 0.89 1.14 1.36 1.43 1.64 1.42 1.37 1.23 1.05 0.97 0.91 0.74 0.79 1.06 1.25 1.24 1.25 1.35 1.44 1.22 0.97 0.78 0.87 0.94 0.72 0.67 0.82 0.87 1.04 1.59 1.91 1.85 1.47 1.22 1.14 1.10 1.01
0.65 0.62 0.57 0.56 0.60 0.67 0.79 0.98 1.18 1.32 1.48 1.47 1.44 1.37 1.36 1.30 0.97 0.82 0.90 1.00 1.11 1.12 1.02 1.10 1.16 0.96 0.78 0.70 0.79 0.75 0.65 0.68 0.76 0.86 1.14 1.66 2.07 2.00 1.57 1.27 1.26 1.20 1.14
0.56 0.65 0.61 0.46 0.45 0.48 0.57 0.76 0.94 1.15 1.33 1.36 1.18 1.10 1.22 1.24 1.05 0.92 1.06 1.15 1.19 1.18 1.20 1.20 1.16 1.01 0.80 0.75 0.76 0.76 0.72 0.75 0.79 0.86 1.09 1.34 1.81 2.00 1.82 1.55 1.50 1.38 1.37
0.56 0.64 0.66 0.56 0.47 0.46 0.51 0.59 0.64 0.93 1.11 1.25 1.28 1.06 1.18 1.22 1.15 1.03 0.96 1.15 1.15 1.19 1.23 1.25 1.27 1.15 1.04 0.95 0.90 0.83 0.89 0.84 0.80 0.77 0.93 1.03 1.31 1.73 1.95 1.93 1.88 1.65 1.56
0.51 0.58 0.61 0.63 0.59 0.55 0.54 0.56 0.54 0.59 0.71 0.82 0.78 0.75 0.94 1.06 1.05 1.05 0.92 0.99 1.09 1.23 1.43 1.49 1.32 1.23 1.17 1.10 1.11 1.06 1.02 0.95 0.90 0.78 0.86 0.92 0.89 1.08 1.46 1.91 2.11 1.97 1.80
0.47 0.52 0.55 0.61 0.66 0.66 0.66 0.74 0.67 0.62 0.67 0.66 0.62 0.63 0.74 0.85 0.89 1.02 1.02 0.98 1.02 1.24 1.49 1.63 1.50 1.39 1.22 1.22 1.21 1.20 1.09 1.07 1.02 0.92 0.94 1.03 0.87 0.83 1.10 1.58 2.02 2.15 2.02
0.42 0.41 0.44 0.48 0.52 0.57 0.62 0.69 0.76 0.76 0.77 0.74 0.77 0.73 0.68 0.81 0.94 1.06 1.12 1.06 1.06 1.27 1.49 1.68 1.72 1.68 1.55 1.49 1.42 1.33 1.25 1.31 1.18 1.08 1.07 1.13 1.21 1.05 1.03 1.23 1.54 1.85 2.07
0.39 0.34 0.32 0.34 0.35 0.38 0.43 0.54 0.66 0.74 0.82 0.89 0.90 0.89 0.87 0.91 0.94 1.09 1.26 1.29 1.29 1.40 1.49 1.53 1.63 1.61 1.64 1.65 1.47 1.44 1.37 1.44 1.45 1.31 1.35 1.36 1.39 1.34 1.20 1.06 1.16 1.26 1.63
0.33 0.32 0.31 0.32 0.31 0.28 0.32 0.45 0.56 0.63 0.72 0.89 0.97 1.03 1.30 1.40 1.18 1.14 1.27 1.29 1.35 1.53 1.58 1.69 1.87 1.79 1.68 1.78 1.63 1.53 1.49 1.46 1.44 1.50 1.56 1.54 1.52 1.40 1.38 1.19 1.20 1.08 1.19
0.18 0.17 0.19 0.25 0.32 0.30 0.27 0.33 0.45 0.54 0.68 0.82 0.99 1.05 1.30 1.41 1.31 1.33 1.34 1.34 1.38 1.45 1.50 1.67 2.01 2.03 1.86 1.75 1.93 1.90 1.81 1.62 1.54 1.56 1.57 1.66 1.67 1.51 1.50 1.51 1.38 1.17 0.99
0.11 0.10 0.13 0.16 0.26 0.33 0.36 0.41 0.54 0.71 0.84 0.94 1.08 1.15 1.26 1.29 1.29 1.23 1.38 1.47 1.44 1.54 1.62 1.76 2.04 2.22 2.02 1.84 2.16 2.56 2.35 2.08 1.75 1.56 1.54 1.47 1.57 1.58 1.49 1.38 1.30 1.22 1.08
0.08 0.08 0.13 0.21 0.34 0.51 0.67 0.89 1.14 1.42 1.54 1.44 1.30 1.37 1.49 1.57 1.54 1.48 1.55 1.68 1.60 1.62 1.69 1.73 1.81 2.22 2.36 2.15 2.11 2.64 2.51 2.33 2.26 1.79 1.44 1.30 1.49 1.61 1.59 1.46 1.36 1.37 1.30
0.16 0.22 0.31 0.43 0.58 0.76 0.96 1.18 1.45 1.69 1.85 1.86 1.88 1.92 1.90 1.86 1.76 1.64 1.65 1.69 1.69 1.75 1.70 1.59 1.73 2.12 2.56 2.57 2.37 2.18 2.05 2.02 2.21 2.12 1.59 1.33 1.41 1.52 1.67 1.55 1.49 1.49 1.46
0.34 0.46 0.56 0.78 0.94 1.08 1.15 1.25 1.47 1.58 1.65 1.76 1.90 1.95 1.95 1.88 1.77 1.62 1.55 1.61 1.68 1.77 1.76 1.81 1.99 2.26 2.51 2.72 2.66 2.42 2.15 1.93 1.62 1.81 1.82 1.63 1.40 1.32 1.38 1.47 1.57 1.55 1.48
0.63 0.85 0.99 1.09 1.18 1.17 1.16 1.18 1.31 1.45 1.54 1.63 1.76 1.82 1.76 1.64 1.60 1.55 1.53 1.50 1.47 1.54 1.64 1.81 2.06 2.19 2.38 2.59 2.61 2.34 2.18 2.05 1.87 1.76 1.63 1.70 1.68 1.40 1.26 1.24 1.34 1.46 1.46

GEFSSE_prec_meanprecacc_204.txt.gz
Total_Precipitation_Accumulation
1.99 1.57 2.61 2.59 2.33 2.04 1.84 1.85 1.91 1.96 2.04 1.96 1.85 1.67 1.54 1.44 1.24 1.11 1.05 1.00 0.97 1.00 1.10 1.15 1.07 1.04 0.93 0.90 0.91 0.94 0.97 0.95 0.94 0.86 0.78 0.77 0.80 0.91 1.10 1.25 1.49 1.89 1.51
1.38 1.30 2.27 2.56 2.35 2.12 2.02 1.98 1.93 1.96 1.99 1.84 1.69 1.58 1.42 1.28 1.18 1.09 1.02 1.00 0.95 0.88 0.95 1.04 1.05 1.07 1.04 1.00 1.07 1.12 1.08 1.03 1.07 1.03 1.06 1.11 0.99 0.98 1.00 1.17 1.58 1.85 1.43
1.19 1.16 1.71 2.42 2.36 2.17 2.14 2.06 1.96 1.90 1.79 1.64 1.54 1.36 1.25 1.12 1.06 1.02 1.00 1.00 0.97 0.87 0.88 0.98 1.06 1.09 1.07 1.13 1.15 1.18 1.17 1.16 1.15 1.16 1.52 2.00 1.53 1.19 1.19 1.21 1.28 1.28 1.28
0.97 1.00 1.31 1.99 2.03 1.96 1.97 1.89 1.82 1.66 1.49 1.53 1.55 1.35 1.22 1.12 1.06 1.08 1.10 0.99 0.94 0.88 0.91 0.99 1.08 1.10 1.11 1.12 1.09 1.07 1.10 1.15 1.24 1.22 1.57 2.01 1.97 1.57 1.41 1.39 1.25 1.22 1.32
0.82 0.99 1.44 1.89 1.87 1.86 1.81 1.65 1.64 1.48 1.32 1.32 1.38 1.33 1.30 1.19 1.06 1.02 1.05 1.04 1.00 0.95 0.94 0.96 1.01 1.06 1.11 1.14 1.10 1.05 1.08 1.30 1.26 1.13 1.38 1.73 2.19 1.83 1.48 1.46 1.36 1.34 1.41
0.94 0.97 1.23 1.61 1.67 1.67 1.58 1.51 1.49 1.37 1.32 1.23 1.18 1.23 1.27 1.21 1.12 1.04 1.08 1.04 0.98 0.99 1.03 1.04 1.07 1.11 1.10 1.11 1.11 1.18 1.23 1.27 1.12 1.25 1.46 1.70 2.02 1.79 1.39 1.29 1.39 1.51 1.61
0.83 0.82 0.96 1.43 1.48 1.47 1.40 1.39 1.45 1.38 1.30 1.18 1.13 1.23 1.35 1.26 1.18 1.10 1.12 1.07 1.02 0.99 1.04 1.06 1.11 1.13 1.04 1.05 1.11 1.13 1.23 1.17 1.17 1.36 1.46 1.65 1.67 1.60 1.35 1.24 1.41 1.53 1.63
0.95 0.84 0.89 1.41 1.52 1.37 1.31 1.28 1.35 1.40 1.31 1.18 1.14 1.15 1.20 1.18 1.10 1.10 1.06 1.08 1.06 1.03 1.05 1.05 1.09 1.11 0.98 0.97 0.99 1.04 1.18 1.09 1.01 1.18 1.35 1.61 1.75 1.63 1.29 1.20 1.27 1.41 1.57
1.27 1.17 1.10 1.27 1.34 1.35 1.31 1.26 1.43 1.53 1.40 1.22 1.11 1.09 1.05 1.04 1.00 0.99 0.98 1.05 1.05 1.04 1.04 1.04 1.10 1.14 1.04 0.95 0.96 1.07 1.23 1.12 0.94 1.11 1.15 1.55 1.83 1.67 1.37 1.22 1.21 1.39 1.51
1.23 1.19 1.21 1.29 1.30 1.31 1.34 1.44 1.59 1.91 1.78 1.39 1.15 1.02 0.97 0.89 0.89 0.97 0.93 0.96 1.05 1.12 1.16 1.17 1.22 1.18 1.14 1.05 1.05 1.17 1.20 0.94 0.89 0.89 1.09 1.40 1.88 1.72 1.41 1.22 1.14 1.19 1.27
0.94 0.98 1.07 1.14 1.18 1.24 1.22 1.38 1.67 1.99 2.03 1.67 1.35 1.19 0.97 0.69 0.70 0.86 0.95 1.06 1.17 1.24 1.34 1.41 1.42 1.32 1.23 1.11 1.13 1.19 0.97 0.74 0.95 1.00 1.17 1.53 1.79 1.76 1.44 1.19 1.07 1.10 1.07
0.73 0.69 0.72 0.76 0.86 0.93 0.95 1.20 1.43 1.50 1.70 1.46 1.40 1.26 1.08 1.01 0.94 0.76 0.84 1.12 1.33 1.33 1.35 1.43 1.51 1.29 1.02 0.82 0.91 0.97 0.75 0.71 0.86 0.93 1.14 1.68 2.00 1.91 1.52 1.26 1.17 1.12 1.03
0.65 0.64 0.59 0.57 0.64 0.75 0.86 1.04 1.22 1.37 1.53 1.51 1.47 1.40 1.39 1.34 1.00 0.84 0.94 1.04 1.17 1.19 1.10 1.18 1.20 1.00 0.82 0.74 0.84 0.78 0.68 0.70 0.80 0.91 1.23 1.77 2.18 2.07 1.63 1.31 1.29 1.23 1.17
0.57 0.68 0.63 0.47 0.48 0.55 0.63 0.80 0.98 1.19 1.37 1.39 1.21 1.12 1.24 1.27 1.07 0.94 1.09 1.17 1.22 1.22 1.26 1.27 1.20 1.06 0.84 0.78 0.81 0.81 0.75 0.77 0.81 0.89 1.14 1.44 1.92 2.09 1.89 1.60 1.53 1.43 1.42
0.57 0.65 0.66 0.57 0.49 0.50 0.56 0.63 0.67 0.96 1.13 1.27 1.30 1.08 1.20 1.24 1.18 1.05 0.98 1.16 1.16 1.21 1.25 1.32 1.33 1.20 1.09 0.99 0.94 0.87 0.91 0.86 0.82 0.79 0.98 1.10 1.37 1.81 2.03 2.00 1.95 1.72 1.62
0.52 0.59 0.62 0.64 0.60 0.57 0.56 0.57 0.56 0.62 0.73 0.84 0.79 0.76 0.96 1.08 1.08 1.08 0.93 1.00 1.10 1.25 1.45 1.52 1.37 1.28 1.22 1.16 1.16 1.09 1.05 0.97 0.91 0.80 0.90 0.97 0.93 1.14 1.53 1.99 2.21 2.04 1.86
0.47 0.53 0.57 0.62 0.66 0.67 0.67 0.74 0.69 0.64 0.68 0.68 0.64 0.64 0.75 0.87 0.94 1.05 1.04 1.00 1.04 1.25 1.50 1.65 1.53 1.42 1.27 1.26 1.26 1.25 1.13 1.10 1.03 0.93 0.96 1.08 0.93 0.88 1.16 1.67 2.10 2.23 2.11
0.43 0.41 0.45 0.48 0.53 0.57 0.62 0.70 0.78 0.78 0.79 0.76 0.79 0.75 0.71 0.84 0.96 1.08 1.13 1.07 1.07 1.27 1.51 1.70 1.76 1.72 1.60 1.53 1.45 1.37 1.30 1.37 1.22 1.10 1.08 1.16 1.26 1.10 1.07 1.29 1.61 1.91 2.14
0.39 0.34 0.33 0.34 0.35 0.39 0.43 0.54 0.67 0.75 0.84 0.90 0.91 0.92 0.93 0.98 0.99 1.11 1.28 1.30 1.30 1.41 1.51 1.56 1.67 1.67 1.69 1.70 1.51 1.47 1.39 1.47 1.49 1.34 1.39 1.41 1.44 1.40 1.26 1.11 1.21 1.31 1.69
0.33 0.32 0.31 0.32 0.31 0.29 0.32 0.46 0.57 0.64 0.72 0.91 0.98 1.04 1.31 1.42 1.21 1.16 1.29 1.30 1.37 1.55 1.60 1.71 1.91 1.84 1.73 1.82 1.65 1.56 1.51 1.48 1.47 1.54 1.60 1.58 1.55 1.45 1.44 1.26 1.29 1.14 1.23
0.18 0.17 0.19 0.25 0.32 0.31 0.27 0.34 0.46 0.55 0.69 0.84 1.01 1.07 1.31 1.42 1.32 1.34 1.35 1.35 1.40 1.48 1.53 1.69 2.04 2.06 1.88 1.78 1.96 1.93 1.84 1.64 1.56 1.58 1.60 1.69 1.71 1.57 1.56 1.57 1.45 1.24 1.04
0.12 0.10 0.13 0.17 0.26 0.33 0.36 0.42 0.54 0.72 0.85 0.95 1.09 1.15 1.27 1.29 1.30 1.23 1.39 1.48 1.45 1.57 1.64 1.79 2.06 2.25 2.05 1.86 2.19 2.60 2.38 2.11 1.78 1.57 1.56 1.49 1.60 1.61 1.52 1.40 1.32 1.25 1.12
0.08 0.09 0.13 0.21 0.34 0.51 0.67 0.89 1.15 1.43 1.56 1.46 1.32 1.38 1.49 1.57 1.55 1.49 1.57 1.69 1.61 1.65 1.73 1.76 1.84 2.26 2.40 2.17 2.14 2.67 2.54 2.36 2.29 1.81 1.46 1.32 1.50 1.63 1.63 1.49 1.39 1.39 1.32
0.16 0.23 0.32 0.43 0.58 0.76 0.96 1.19 1.45 1.70 1.86 1.87 1.89 1.93 1.90 1.86 1.77 1.66 1.66 1.70 1.71 1.77 1.73 1.61 1.76 2.16 2.60 2.61 2.40 2.21 2.07 2.05 2.24 2.15 1.61 1.34 1.42 1.54 1.69 1.57 1.50 1.50 1.48
0.34 0.47 0.57 0.78 0.94 1.08 1.15 1.25 1.47 1.58 1.65 1.76 1.90 1.96 1.95 1.89 1.78 1.63 1.57 1.63 1.70 1.78 1.77 1.82 2.00 2.29 2.55 2.76 2.71 2.46 2.19 1.96 1.63 1.83 1.84 1.64 1.41 1.33 1.39 1.47 1.57 1.56 1.50
0.63 0.85 0.99 1.09 1.18 1.17 1.16 1.18 1.31 1.45 1.55 1.63 1.77 1.83 1.77 1.65 1.61 1.56 1.54 1.52 1.48 1.55 1.65 1.82 2.07 2.21 2.40 2.62 2.66 2.40 2.22 2.08 1.89 1.77 1.64 1.71 1.69 1.40 1.26 1.24 1.34 1.46 1.46

GEFSSE_prec_meanprecacc_210.txt.gz
Total_Precipitation_Accumulation
2.10 1.64 2.70 2.70 2.45 2.17 1.99 2.02 2.08 2.11 2.18 2.06 1.95 1.75 1.60 1.51 1.33 1.22 1.16 1.10 1.07 1.12 1.22 1.25 1.16 1.13 1.03 1.01 1.05 1.05 1.04 1.00 1.01 0.92 0.82 0.82 0.84 0.95 1.15 1.31 1.59 1.98 1.57
1.45 1.36 2.33 2.64 2.45 2.25 2.18 2.16 2.08 2.09 2.16 1.97 1.80 1.69 1.51 1.36 1.26 1.20 1.13 1.11 1.05 0.99 1.04 1.14 1.16 1.18 1.15 1.13 1.21 1.23 1.16 1.10 1.16 1.11 1.12 1.18 1.03 1.02 1.04 1.23 1.67 1.94 1.47
1.24 1.20 1.75 2.46 2.40 2.21 2.20 2.18 2.08 2.01 1.98 1.80 1.66 1.48 1.34 1.19 1.13 1.11 1.13 1.13 1.08 0.97 0.97 1.08 1.18 1.25 1.24 1.26 1.29 1.28 1.26 1.23 1.22 1.23 1.64 2.12 1.62 1.25 1.24 1.26 1.33 1.35 1.34
1.01 1.03 1.34 2.02 2.06 2.01 2.01 1.94 1.89 1.74 1.61 1.65 1.66 1.47 1.31 1.19 1.12 1.14 1.18 1.11 1.05 0.97 1.01 1.09 1.19 1.24 1.23 1.23 1.19 1.16 1.17 1.23 1.31 1.32 1.71 2.13 2.10 1.63 1.46 1.45 1.30 1.28 1.41
0.84 1.01 1.48 1.93 1.91 1.91 1.87 1.70 1.69 1.56 1.42 1.41 1.45 1.40 1.38 1.26 1.13 1.10 1.13 1.13 1.11 1.06 1.05 1.06 1.10 1.16 1.22 1.22 1.16 1.12 1.15 1.37 1.37 1.25 1.48 1.85 2.30 1.91 1.54 1.53 1.42 1.42 1.48
0.96 1.00 1.26 1.65 1.70 1.71 1.64 1.57 1.56 1.45 1.42 1.32 1.25 1.28 1.33 1.28 1.19 1.12 1.17 1.13 1.05 1.07 1.12 1.15 1.18 1.22 1.22 1.20 1.17 1.23 1.30 1.34 1.25 1.38 1.58 1.83 2.11 1.86 1.46 1.35 1.46 1.58 1.66
0.87 0.84 1.00 1.48 1.54 1.54 1.50 1.50 1.53 1.45 1.39 1.26 1.19 1.27 1.40 1.33 1.25 1.18 1.20 1.15 1.07 1.04 1.12 1.15 1.20 1.23 1.16 1.17 1.18 1.18 1.29 1.26 1.30 1.50 1.59 1.77 1.75 1.67 1.41 1.31 1.48 1.58 1.66
0.97 0.88 0.95 1.47 1.59 1.47 1.43 1.38 1.45 1.49 1.41 1.28 1.21 1.21 1.25 1.23 1.16 1.15 1.12 1.13 1.09 1.07 1.13 1.13 1.16 1.20 1.09 1.06 1.05 1.09 1.23 1.14 1.08 1.28 1.46 1.70 1.83 1.70 1.34 1.24 1.31 1.45 1.62
1.29 1.21 1.22 1.37 1.41 1.47 1.43 1.36 1.52 1.64 1.51 1.31 1.19 1.15 1.09 1.08 1.05 1.04 1.04 1.10 1.09 1.08 1.10 1.12 1.16 1.21 1.11 1.02 1.01 1.12 1.27 1.16 1.01 1.22 1.24 1.62 1.91 1.75 1.43 1.25 1.24 1.42 1.56
1.24 1.20 1.24 1.35 1.35 1.36 1.39 1.52 1.69 2.00 1.88 1.48 1.22 1.06 1.00 0.93 0.94 1.03 1.00 1.02 1.10 1.16 1.20 1.21 1.25 1.22 1.20 1.10 1.10 1.22 1.24 0.99 0.96 0.97 1.18 1.46 1.95 1.79 1.46 1.25 1.16 1.21 1.30
0.94 0.98 1.08 1.16 1.20 1.28 1.25 1.41 1.75 2.08 2.12 1.74 1.39 1.23 1.02 0.74 0.74 0.92 1.03 1.13 1.23 1.30 1.37 1.44 1.45 1.36 1.26 1.14 1.17 1.23 1.01 0.79 1.02 1.08 1.25 1.58 1.85 1.81 1.47 1.21 1.09 1.12 1.10
0.75 0.70 0.73 0.77 0.88 0.95 0.98 1.23 1.48 1.56 1.76 1.50 1.43 1.30 1.13 1.06 0.99 0.83 0.90 1.19 1.37 1.38 1.40 1.48 1.55 1.32 1.05 0.84 0.94 1.02 0.80 0.78 0.93 1.02 1.22 1.74 2.06 1.96 1.56 1.29 1.19 1.14 1.05
0.67 0.65 0.59 0.58 0.65 0.76 0.88 1.06 1.26 1.42 1.58 1.57 1.51 1.44 1.44 1.40 1.06 0.92 0.99 1.09 1.21 1.23 1.17 1.26 1.26 1.04 0.85 0.78 0.88 0.82 0.72 0.75 0.85 0.96 1.28 1.84 2.24 2.12 1.66 1.33 1.31 1.25 1.19
0.58 0.68 0.63 0.48 0.49 0.56 0.65 0.83 1.01 1.22 1.42 1.45 1.25 1.16 1.29 1.33 1.14 1.01 1.15 1.22 1.26 1.26 1.32 1.35 1.27 1.10 0.87 0.81 0.85 0.85 0.78 0.80 0.85 0.92 1.18 1.50 1.98 2.13 1.93 1.64 1.58 1.47 1.45
0.57 0.65 0.67 0.58 0.51 0.54 0.59 0.67 0.71 0.99 1.17 1.30 1.34 1.12 1.24 1.28 1.23 1.11 1.05 1.22 1.20 1.24 1.28 1.35 1.37 1.25 1.14 1.03 0.98 0.90 0.93 0.88 0.84 0.82 1.03 1.14 1.40 1.85 2.07 2.06 2.00 1.78 1.66
0.53 0.60 0.62 0.64 0.61 0.60 0.59 0.61 0.59 0.66 0.76 0.86 0.82 0.78 0.98 1.11 1.12 1.12 0.99 1.04 1.13 1.27 1.47 1.54 1.40 1.33 1.27 1.21 1.20 1.12 1.07 0.99 0.94 0.84 0.97 1.03 0.97 1.17 1.57 2.04 2.27 2.09 1.90
0.48 0.54 0.57 0.62 0.67 0.69 0.71 0.78 0.71 0.66 0.70 0.70 0.66 0.65 0.77 0.89 0.97 1.07 1.08 1.04 1.07 1.28 1.52 1.68 1.57 1.46 1.32 1.31 1.30 1.27 1.16 1.12 1.05 0.96 1.04 1.16 0.99 0.92 1.20 1.72 2.17 2.28 2.15
0.43 0.42 0.45 0.48 0.54 0.59 0.66 0.73 0.81 0.80 0.81 0.78 0.81 0.77 0.72 0.85 0.98 1.10 1.15 1.09 1.09 1.29 1.53 1.75 1.80 1.76 1.66 1.58 1.49 1.40 1.33 1.40 1.24 1.13 1.13 1.22 1.32 1.15 1.11 1.33 1.68 1.99 2.21
0.40 0.35 0.33 0.34 0.36 0.40 0.46 0.56 0.70 0.78 0.85 0.91 0.93 0.94 0.94 1.00 1.02 1.14 1.30 1.32 1.32 1.43 1.53 1.58 1.70 1.71 1.74 1.74 1.55 1.51 1.42 1.49 1.51 1.37 1.42 1.44 1.48 1.45 1.30 1.14 1.25 1.38 1.75
0.34 0.34 0.34 0.32 0.32 0.30 0.34 0.47 0.60 0.68 0.75 0.92 0.99 1.05 1.32 1.44 1.24 1.20 1.31 1.33 1.39 1.57 1.63 1.74 1.95 1.88 1.77 1.86 1.69 1.59 1.53 1.50 1.49 1.57 1.63 1.61 1.58 1.49 1.48 1.30 1.34 1.21 1.30
0.21 0.20 0.24 0.26 0.32 0.31 0.28 0.35 0.49 0.61 0.73 0.87 1.03 1.08 1.31 1.43 1.34 1.35 1.37 1.37 1.42 1.51 1.55 1.72 2.09 2.11 1.92 1.82 2.01 1.98 1.87 1.66 1.58 1.60 1.62 1.71 1.73 1.59 1.58 1.60 1.49 1.30 1.11
0.19 0.14 0.16 0.18 0.26 0.33 0.36 0.42 0.56 0.75 0.87 0.97 1.12 1.17 1.27 1.30 1.31 1.24 1.40 1.49 1.47 1.60 1.67 1.82 2.11 2.32 2.09 1.90 2.25 2.68 2.44 2.16 1.82 1.60 1.59 1.51 1.61 1.63 1.54 1.42 1.35 1.28 1.16
0.14 0.11 0.14 0.22 0.34 0.51 0.67 0.89 1.15 1.45 1.58 1.49 1.35 1.41 1.50 1.58 1.55 1.49 1.58 1.70 1.62 1.68 1.77 1.81 1.89 2.33 2.46 2.22 2.18 2.75 2.63 2.42 2.34 1.85 1.48 1.33 1.51 1.64 1.64 1.50 1.40 1.41 1.34
0.18 0.24 0.32 0.43 0.58 0.76 0.96 1.19 1.45 1.71 1.89 1.90 1.91 1.94 1.91 1.87 1.77 1.66 1.67 1.72 1.72 1.79 1.77 1.64 1.79 2.21 2.66 2.68 2.46 2.26 2.14 2.11 2.30 2.19 1.64 1.36 1.43 1.55 1.70 1.58 1.51 1.52 1.50
0.35 0.47 0.57 0.78 0.94 1.08 1.15 1.25 1.47 1.58 1.66 1.77 1.92 1.97 1.96 1.90 1.78 1.64 1.58 1.65 1.72 1.80 1.79 1.84 2.03 2.32 2.60 2.84 2.78 2.52 2.24 2.01 1.68 1.87 1.86 1.65 1.43 1.35 1.40 1.48 1.58 1.57 1.53
0.64 0.86 0.99 1.09 1.18 1.17 1.16 1.18 1.31 1.45 1.55 1.65 1.81 1.86 1.80 1.68 1.63 1.57 1.54 1.53 1.50 1.57 1.67 1.85 2.10 2.23 2.42 2.65 2.71 2.45 2.27 2.13 1.94 1.81 1.67 1.73 1.70 1.42 1.28 1.24 1.34 1.47 1.48

GEFSSE_prec_meanprecacc_216.txt.gz
Total_Precipitation_Accumulation
2.13 1.69 2.79 2.79 2.52 2.21 2.03 2.06 2.14 2.18 2.22 2.11 1.98 1.79 1.65 1.55 1.36 1.27 1.21 1.15 1.12 1.17 1.30 1.37 1.30 1.26 1.13 1.10 1.14 1.17 1.16 1.08 1.08 1.01 0.90 0.90 0.90 1.00 1.20 1.36 1.63 2.00 1.61
1.47 1.39 2.40 2.70 2.53 2.32 2.25 2.22 2.13 2.17 2.22 2.03 1.84 1.72 1.54 1.40 1.31 1.27 1.19 1.17 1.10 1.05 1.10 1.23 1.27 1.29 1.26 1.24 1.35 1.37 1.27 1.16 1.23 1.19 1.21 1.26 1.10 1.09 1.09 1.27 1.69 1.96 1.50
1.25 1.22 1.79 2.51 2.45 2.26 2.25 2.21 2.14 2.10 2.06 1.84 1.69 1.52 1.37 1.23 1.19 1.18 1.21 1.20 1.15 1.03 1.02 1.15 1.27 1.38 1.42 1.45 1.45 1.43 1.36 1.32 1.31 1.32 1.70 2.16 1.66 1.32 1.28 1.29 1.36 1.38 1.36
1.03 1.06 1.38 2.06 2.09 2.03 2.04 1.97 1.92 1.79 1.66 1.68 1.68 1.50 1.35 1.21 1.18 1.23 1.26 1.19 1.15 1.05 1.07 1.15 1.24 1.31 1.35 1.38 1.35 1.30 1.28 1.34 1.42 1.41 1.76 2.16 2.12 1.70 1.51 1.49 1.33 1.32 1.44
0.87 1.02 1.52 1.99 1.94 1.93 1.89 1.73 1.72 1.59 1.46 1.45 1.48 1.42 1.41 1.29 1.18 1.16 1.21 1.21 1.20 1.14 1.11 1.13 1.17 1.23 1.29 1.31 1.27 1.24 1.25 1.47 1.47 1.30 1.51 1.87 2.33 1.96 1.58 1.57 1.47 1.47 1.52
0.98 1.01 1.30 1.71 1.74 1.74 1.67 1.61 1.59 1.49 1.47 1.36 1.28 1.30 1.34 1.30 1.23 1.15 1.22 1.19 1.13 1.16 1.20 1.22 1.24 1.30 1.29 1.27 1.24 1.32 1.40 1.42 1.31 1.41 1.61 1.86 2.14 1.91 1.49 1.39 1.50 1.62 1.69
0.89 0.86 1.04 1.53 1.58 1.57 1.54 1.54 1.56 1.49 1.44 1.31 1.23 1.30 1.43 1.36 1.28 1.20 1.24 1.20 1.14 1.13 1.18 1.21 1.25 1.29 1.22 1.23 1.24 1.25 1.36 1.34 1.34 1.52 1.63 1.82 1.81 1.74 1.45 1.34 1.51 1.61 1.69
0.99 0.89 0.97 1.50 1.63 1.52 1.51 1.46 1.49 1.54 1.47 1.33 1.25 1.23 1.29 1.29 1.21 1.19 1.16 1.18 1.16 1.13 1.18 1.19 1.21 1.24 1.14 1.10 1.10 1.15 1.28 1.20 1.14 1.31 1.49 1.76 1.89 1.76 1.37 1.27 1.33 1.47 1.64
1.30 1.23 1.24 1.40 1.46 1.53 1.48 1.40 1.55 1.68 1.56 1.36 1.22 1.18 1.13 1.15 1.12 1.10 1.09 1.17 1.16 1.14 1.16 1.18 1.21 1.25 1.15 1.06 1.04 1.16 1.32 1.23 1.08 1.25 1.26 1.66 1.98 1.81 1.47 1.27 1.26 1.44 1.57
1.25 1.21 1.25 1.36 1.37 1.37 1.41 1.54 1.71 2.03 1.92 1.52 1.27 1.10 1.05 1.00 1.01 1.10 1.07 1.11 1.18 1.22 1.26 1.27 1.30 1.27 1.24 1.14 1.13 1.27 1.29 1.03 1.01 1.02 1.24 1.52 2.04 1.86 1.50 1.28 1.18 1.23 1.32
0.96 1.01 1.10 1.18 1.22 1.29 1.26 1.44 1.79 2.12 2.16 1.77 1.43 1.27 1.05 0.77 0.77 0.96 1.10 1.23 1.34 1.39 1.45 1.50 1.49 1.41 1.31 1.18 1.21 1.28 1.05 0.83 1.05 1.12 1.32 1.66 1.93 1.87 1.52 1.24 1.11 1.14 1.12
0.76 0.72 0.75 0.80 0.90 0.97 0.99 1.25 1.53 1.60 1.79 1.52 1.45 1.32 1.15 1.09 1.01 0.85 0.95 1.26 1.47 1.47 1.49 1.57 1.60 1.37 1.08 0.87 0.98 1.06 0.84 0.82 0.96 1.05 1.27 1.81 2.13 2.00 1.58 1.32 1.22 1.17 1.07
0.68 0.65 0.60 0.61 0.68 0.79 0.91 1.09 1.29 1.45 1.60 1.58 1.52 1.46 1.47 1.43 1.09 0.94 1.01 1.12 1.25 1.29 1.22 1.31 1.31 1.06 0.87 0.80 0.90 0.85 0.74 0.77 0.87 0.98 1.33 1.91 2.30 2.16 1.69 1.36 1.34 1.29 1.22
0.59 0.69 0.64 0.50 0.52 0.59 0.68 0.86 1.04 1.24 1.43 1.45 1.26 1.18 1.32 1.35 1.16 1.03 1.17 1.24 1.28 1.29 1.35 1.36 1.30 1.13 0.89 0.83 0.87 0.87 0.80 0.81 0.87 0.93 1.22 1.56 2.02 2.19 1.98 1.68 1.62 1.50 1.48
0.58 0.66 0.69 0.60 0.54 0.56 0.61 0.70 0.74 1.02 1.19 1.31 1.35 1.14 1.26 1.30 1.24 1.12 1.06 1.25 1.23 1.26 1.30 1.37 1.40 1.29 1.18 1.06 1.01 0.93 0.96 0.90 0.86 0.84 1.06 1.20 1.45 1.91 2.13 2.10 2.04 1.81 1.68
0.54 0.62 0.65 0.68 0.65 0.64 0.64 0.65 0.63 0.68 0.78 0.88 0.84 0.80 0.99 1.12 1.13 1.13 1.00 1.07 1.16 1.30 1.50 1.57 1.43 1.36 1.30 1.25 1.23 1.14 1.10 1.03 0.96 0.86 1.00 1.07 1.01 1.21 1.61 2.10 2.34 2.13 1.95
0.51 0.58 0.64 0.68 0.73 0.74 0.75 0.80 0.73 0.67 0.71 0.71 0.67 0.67 0.78 0.90 0.98 1.09 1.09 1.07 1.10 1.30 1.55 1.72 1.60 1.49 1.34 1.33 1.32 1.29 1.18 1.15 1.07 0.97 1.06 1.19 1.02 0.96 1.25 1.79 2.25 2.36 2.22
0.49 0.48 0.51 0.53 0.62 0.66 0.71 0.77 0.84 0.82 0.82 0.79 0.81 0.78 0.73 0.86 0.99 1.11 1.16 1.12 1.12 1.31 1.56 1.78 1.83 1.80 1.70 1.61 1.51 1.42 1.35 1.42 1.26 1.14 1.17 1.26 1.35 1.19 1.16 1.38 1.73 2.08 2.28
0.43 0.37 0.37 0.41 0.43 0.47 0.52 0.61 0.73 0.80 0.86 0.92 0.93 0.94 0.94 1.00 1.03 1.15 1.32 1.34 1.33 1.45 1.55 1.60 1.72 1.74 1.78 1.76 1.57 1.53 1.45 1.53 1.55 1.40 1.46 1.49 1.52 1.48 1.33 1.16 1.28 1.44 1.84
0.35 0.35 0.36 0.38 0.36 0.35 0.39 0.50 0.63 0.70 0.76 0.93 1.00 1.05 1.32 1.45 1.25 1.21 1.33 1.35 1.40 1.59 1.66 1.77 1.98 1.92 1.81 1.90 1.72 1.61 1.57 1.54 1.52 1.60 1.68 1.65 1.62 1.52 1.51 1.32 1.36 1.23 1.42
0.22 0.21 0.27 0.30 0.36 0.35 0.31 0.37 0.50 0.61 0.74 0.87 1.04 1.09 1.32 1.44 1.35 1.36 1.37 1.39 1.43 1.52 1.58 1.77 2.13 2.15 1.96 1.85 2.04 2.00 1.91 1.71 1.62 1.64 1.65 1.74 1.76 1.62 1.61 1.62 1.50 1.32 1.19
0.21 0.15 0.17 0.21 0.29 0.36 0.38 0.44 0.58 0.76 0.87 0.98 1.13 1.19 1.29 1.32 1.32 1.24 1.40 1.50 1.47 1.61 1.69 1.86 2.14 2.35 2.12 1.93 2.27 2.70 2.47 2.20 1.85 1.63 1.61 1.53 1.64 1.65 1.55 1.43 1.35 1.29 1.19
0.15 0.12 0.15 0.23 0.35 0.52 0.68 0.90 1.16 1.45 1.59 1.50 1.37 1.43 1.53 1.61 1.57 1.50 1.59 1.71 1.63 1.69 1.78 1.82 1.91 2.35 2.48 2.23 2.20 2.77 2.65 2.45 2.38 1.87 1.50 1.35 1.54 1.65 1.65 1.51 1.40 1.42 1.35
0.19 0.24 0.33 0.44 0.60 0.76 0.96 1.19 1.45 1.71 1.89 1.91 1.92 1.97 1.94 1.89 1.78 1.67 1.68 1.73 1.73 1.80 1.78 1.66 1.80 2.22 2.67 2.70 2.48 2.30 2.17 2.14 2.33 2.22 1.66 1.38 1.46 1.57 1.72 1.59 1.52 1.53 1.51
0.35 0.48 0.59 0.80 0.96 1.09 1.16 1.25 1.47 1.58 1.66 1.78 1.92 1.99 2.00 1.92 1.80 1.65 1.59 1.67 1.73 1.81 1.80 1.86 2.05 2.33 2.61 2.86 2.81 2.56 2.27 2.04 1.69 1.89 1.88 1.67 1.45 1.36 1.42 1.49 1.60 1.59 1.55
0.64 0.87 1.00 1.10 1.19 1.18 1.16 1.18 1.31 1.46 1.55 1.65 1.81 1.87 1.81 1.69 1.65 1.58 1.55 1.54 1.51 1.58 1.67 1.86 2.12 2.25 2.44 2.67 2.73 2.46 2.28 2.14 1.95 1.82 1.68 1.74 1.72 1.44 1.30 1.27 1.36 1.49 1.49

GEFSSE_prec_meanprecacc_222.txt.gz
Total_Precipitation_Accumulation
2.15 1.75 2.93 2.92 2.64 2.32 2.12 2.17 2.27 2.28 2.31 2.20 2.07 1.87 1.73 1.62 1.43 1.33 1.26 1.18 1.16 1.24 1.48 1.64 1.52 1.46 1.27 1.20 1.23 1.26 1.25 1.18 1.18 1.09 0.99 0.97 0.98 1.10 1.30 1.43 1.67 2.04 1.65
1.48 1.42 2.54 2.85 2.64 2.41 2.32 2.29 2.24 2.27 2.31 2.14 1.96 1.82 1.64 1.47 1.37 1.33 1.24 1.21 1.15 1.13 1.24 1.43 1.54 1.54 1.40 1.35 1.43 1.45 1.37 1.26 1.32 1.27 1.30 1.34 1.18 1.18 1.16 1.32 1.72 1.99 1.53
1.27 1.26 1.92 2.67 2.58 2.35 2.31 2.27 2.21 2.19 2.14 1.92 1.78 1.62 1.48 1.32 1.25 1.26 1.29 1.27 1.20 1.10 1.13 1.30 1.50 1.57 1.55 1.57 1.56 1.54 1.49 1.46 1.41 1.39 1.74 2.19 1.72 1.39 1.36 1.34 1.39 1.41 1.41
1.05 1.09 1.45 2.16 2.19 2.13 2.10 2.03 1.99 1.86 1.74 1.75 1.75 1.56 1.43 1.31 1.28 1.32 1.34 1.26 1.21 1.11 1.14 1.25 1.36 1.43 1.46 1.52 1.50 1.47 1.46 1.52 1.57 1.47 1.77 2.16 2.13 1.75 1.57 1.53 1.37 1.38 1.51
0.88 1.05 1.58 2.08 2.03 2.02 1.97 1.79 1.79 1.66 1.54 1.52 1.55 1.46 1.46 1.35 1.26 1.24 1.29 1.30 1.28 1.21 1.17 1.22 1.27 1.33 1.41 1.45 1.41 1.40 1.42 1.60 1.63 1.38 1.52 1.88 2.34 2.01 1.64 1.60 1.52 1.54 1.60
1.00 1.04 1.37 1.80 1.82 1.82 1.74 1.66 1.65 1.55 1.53 1.44 1.36 1.36 1.40 1.36 1.30 1.23 1.31 1.27 1.22 1.25 1.29 1.31 1.35 1.43 1.42 1.39 1.37 1.45 1.53 1.54 1.41 1.47 1.63 1.88 2.17 1.96 1.53 1.41 1.53 1.65 1.74
0.90 0.88 1.09 1.60 1.65 1.63 1.60 1.60 1.64 1.58 1.52 1.39 1.31 1.35 1.47 1.41 1.34 1.27 1.34 1.30 1.24 1.21 1.27 1.29 1.36 1.41 1.34 1.34 1.35 1.35 1.46 1.45 1.40 1.55 1.64 1.85 1.87 1.82 1.50 1.37 1.55 1.64 1.73
1.00 0.91 1.01 1.56 1.69 1.58 1.57 1.52 1.57 1.62 1.56 1.42 1.32 1.29 1.35 1.34 1.26 1.25 1.23 1.29 1.27 1.23 1.26 1.29 1.31 1.35 1.23 1.20 1.18 1.21 1.35 1.26 1.16 1.32 1.52 1.82 1.97 1.84 1.44 1.32 1.37 1.52 1.67
1.32 1.24 1.27 1.43 1.49 1.58 1.56 1.47 1.64 1.75 1.64 1.44 1.29 1.24 1.19 1.21 1.19 1.17 1.17 1.27 1.27 1.24 1.24 1.27 1.29 1.33 1.24 1.14 1.10 1.22 1.36 1.26 1.10 1.26 1.28 1.71 2.08 1.89 1.54 1.33 1.30 1.48 1.60
1.26 1.23 1.27 1.38 1.38 1.39 1.44 1.60 1.77 2.09 1.98 1.60 1.35 1.18 1.12 1.06 1.08 1.18 1.15 1.21 1.29 1.33 1.35 1.36 1.39 1.36 1.33 1.22 1.20 1.31 1.31 1.05 1.03 1.04 1.27 1.57 2.13 1.95 1.55 1.33 1.23 1.27 1.34
0.97 1.02 1.12 1.20 1.23 1.30 1.27 1.46 1.82 2.17 2.21 1.82 1.48 1.33 1.09 0.79 0.79 1.01 1.17 1.33 1.45 1.51 1.58 1.61 1.61 1.52 1.39 1.25 1.28 1.33 1.07 0.84 1.06 1.14 1.36 1.73 2.02 1.93 1.56 1.29 1.16 1.18 1.15
0.76 0.72 0.76 0.80 0.91 0.98 1.00 1.27 1.55 1.61 1.81 1.54 1.46 1.33 1.16 1.09 1.02 0.88 1.00 1.35 1.59 1.60 1.64 1.69 1.71 1.50 1.17 0.95 1.05 1.10 0.86 0.83 0.96 1.06 1.30 1.87 2.19 2.05 1.62 1.36 1.26 1.21 1.11
0.68 0.66 0.61 0.62 0.68 0.81 0.93 1.12 1.31 1.46 1.61 1.59 1.53 1.47 1.48 1.45 1.10 0.96 1.03 1.15 1.30 1.36 1.29 1.37 1.35 1.13 0.95 0.88 0.98 0.89 0.76 0.78 0.88 0.99 1.36 1.96 2.35 2.21 1.73 1.41 1.38 1.33 1.27
0.59 0.70 0.65 0.51 0.53 0.61 0.70 0.89 1.06 1.26 1.44 1.47 1.27 1.19 1.33 1.37 1.19 1.05 1.19 1.25 1.30 1.32 1.38 1.39 1.31 1.15 0.93 0.87 0.92 0.92 0.82 0.83 0.88 0.95 1.25 1.62 2.08 2.24 2.03 1.72 1.65 1.55 1.54
0.59 0.68 0.71 0.62 0.56 0.59 0.65 0.73 0.77 1.05 1.21 1.33 1.37 1.15 1.27 1.31 1.26 1.13 1.08 1.27 1.25 1.28 1.32 1.40 1.42 1.31 1.20 1.08 1.04 0.96 0.99 0.92 0.88 0.85 1.08 1.23 1.49 1.95 2.18 2.15 2.09 1.85 1.73
0.55 0.64 0.67 0.69 0.67 0.67 0.68 0.69 0.67 0.73 0.81 0.90 0.85 0.81 1.00 1.13 1.15 1.14 1.01 1.08 1.18 1.32 1.52 1.60 1.46 1.40 1.33 1.28 1.26 1.18 1.13 1.04 0.97 0.86 1.01 1.09 1.04 1.25 1.67 2.17 2.42 2.20 2.01
0.52 0.59 0.65 0.71 0.76 0.77 0.78 0.83 0.79 0.73 0.75 0.73 0.68 0.68 0.78 0.90 0.99 1.10 1.10 1.09 1.12 1.32 1.57 1.75 1.63 1.52 1.36 1.36 1.34 1.32 1.21 1.18 1.08 0.98 1.08 1.21 1.04 0.99 1.31 1.86 2.35 2.46 2.30
0.50 0.49 0.52 0.55 0.63 0.67 0.73 0.79 0.88 0.88 0.86 0.82 0.83 0.78 0.73 0.86 0.99 1.12 1.18 1.14 1.13 1.32 1.57 1.80 1.87 1.84 1.73 1.63 1.53 1.44 1.37 1.46 1.30 1.17 1.19 1.28 1.38 1.23 1.22 1.43 1.82 2.19 2.34
0.44 0.38 0.39 0.43 0.45 0.48 0.53 0.62 0.75 0.83 0.89 0.95 0.95 0.95 0.95 1.00 1.03 1.15 1.33 1.36 1.35 1.46 1.57 1.62 1.75 1.76 1.80 1.79 1.60 1.55 1.47 1.57 1.59 1.45 1.50 1.52 1.56 1.53 1.38 1.21 1.33 1.51 1.92
0.36 0.36 0.37 0.40 0.38 0.36 0.40 0.51 0.64 0.71 0.77 0.95 1.01 1.05 1.33 1.45 1.25 1.21 1.35 1.36 1.41 1.60 1.67 1.79 2.00 1.93 1.82 1.91 1.73 1.63 1.59 1.58 1.56 1.66 1.75 1.71 1.66 1.55 1.54 1.35 1.39 1.29 1.51
0.23 0.21 0.27 0.31 0.37 0.36 0.32 0.37 0.51 0.63 0.75 0.88 1.05 1.10 1.32 1.44 1.36 1.37 1.38 1.40 1.44 1.53 1.60 1.79 2.15 2.17 1.98 1.87 2.06 2.04 1.94 1.74 1.65 1.68 1.71 1.81 1.81 1.65 1.63 1.65 1.53 1.36 1.25
0.21 0.16 0.18 0.21 0.30 0.37 0.39 0.45 0.58 0.77 0.89 0.99 1.14 1.20 1.29 1.32 1.33 1.25 1.41 1.51 1.48 1.62 1.70 1.88 2.17 2.38 2.14 1.95 2.29 2.75 2.52 2.22 1.88 1.66 1.64 1.57 1.69 1.70 1.58 1.45 1.38 1.31 1.21
0.15 0.12 0.15 0.23 0.36 0.53 0.68 0.92 1.17 1.46 1.60 1.50 1.37 1.44 1.53 1.62 1.58 1.51 1.59 1.72 1.64 1.69 1.80 1.85 1.94 2.37 2.51 2.26 2.22 2.80 2.69 2.48 2.43 1.91 1.52 1.37 1.55 1.67 1.67 1.53 1.42 1.43 1.37
0.19 0.25 0.34 0.45 0.61 0.78 0.98 1.20 1.46 1.71 1.90 1.91 1.93 1.97 1.95 1.90 1.79 1.67 1.68 1.74 1.74 1.81 1.79 1.67 1.83 2.25 2.71 2.73 2.50 2.31 2.19 2.18 2.37 2.24 1.67 1.40 1.47 1.58 1.73 1.60 1.53 1.55 1.53
0.36 0.49 0.59 0.81 0.97 1.11 1.17 1.26 1.48 1.58 1.66 1.78 1.92 1.99 2.00 1.92 1.80 1.65 1.59 1.67 1.73 1.81 1.81 1.87 2.06 2.35 2.63 2.88 2.84 2.58 2.28 2.05 1.71 1.90 1.89 1.68 1.45 1.37 1.43 1.51 1.61 1.61 1.57
0.65 0.88 1.00 1.10 1.20 1.19 1.17 1.19 1.31 1.46 1.55 1.65 1.81 1.87 1.82 1.69 1.65 1.58 1.55 1.54 1.51 1.58 1.68 1.88 2.14 2.28 2.46 2.69 2.75 2.48 2.29 2.17 1.97 1.82 1.68 1.74 1.72 1.44 1.31 1.28 1.37 1.50 1.50

GEFSSE_prec_meanprecacc_228.txt.gz
Total_Precipitation_Accumulation
2.16 1.77 2.98 3.05 2.78 2.47 2.26 2.29 2.41 2.41 2.46 2.36 2.23 2.00 1.84 1.71 1.51 1.43 1.34 1.28 1.24 1.32 1.59 1.75 1.63 1.59 1.38 1.33 1.35 1.34 1.33 1.28 1.29 1.18 1.08 1.05 1.04 1.15 1.32 1.46 1.71 2.08 1.70
1.49 1.45 2.62 3.00 2.82 2.55 2.44 2.43 2.38 2.40 2.44 2.27 2.09 1.96 1.77 1.59 1.48 1.43 1.32 1.30 1.24 1.22 1.39 1.61 1.66 1.68 1.53 1.49 1.57 1.57 1.46 1.35 1.41 1.36 1.36 1.40 1.24 1.24 1.20 1.34 1.76 2.04 1.58
1.30 1.33 2.05 2.89 2.76 2.47 2.43 2.40 2.33 2.31 2.26 2.03 1.88 1.73 1.62 1.46 1.39 1.39 1.39 1.37 1.28 1.20 1.33 1.55 1.74 1.79 1.72 1.73 1.73 1.68 1.61 1.55 1.51 1.46 1.81 2.27 1.79 1.46 1.41 1.37 1.43 1.47 1.48
1.07 1.14 1.58 2.35 2.30 2.21 2.20 2.12 2.07 1.95 1.83 1.84 1.81 1.64 1.54 1.45 1.42 1.45 1.42 1.34 1.28 1.21 1.32 1.51 1.69 1.67 1.68 1.75 1.66 1.61 1.58 1.61 1.65 1.54 1.82 2.21 2.18 1.80 1.63 1.59 1.44 1.44 1.59
0.89 1.08 1.64 2.18 2.11 2.09 2.04 1.86 1.88 1.73 1.61 1.60 1.63 1.55 1.55 1.44 1.36 1.33 1.35 1.37 1.35 1.30 1.31 1.44 1.49 1.51 1.61 1.68 1.57 1.53 1.56 1.72 1.70 1.42 1.55 1.91 2.40 2.07 1.69 1.66 1.59 1.60 1.67
1.01 1.06 1.43 1.88 1.89 1.88 1.80 1.73 1.72 1.61 1.60 1.51 1.45 1.45 1.49 1.44 1.37 1.31 1.39 1.35 1.32 1.38 1.42 1.45 1.50 1.59 1.57 1.58 1.53 1.59 1.67 1.66 1.50 1.54 1.68 1.92 2.24 2.02 1.58 1.46 1.58 1.69 1.77
0.93 0.92 1.15 1.68 1.69 1.67 1.67 1.65 1.70 1.65 1.62 1.49 1.39 1.45 1.57 1.49 1.42 1.36 1.41 1.39 1.33 1.32 1.43 1.46 1.51 1.58 1.49 1.50 1.50 1.49 1.58 1.58 1.48 1.62 1.71 1.93 1.96 1.90 1.56 1.41 1.58 1.66 1.76
1.04 0.94 1.06 1.62 1.73 1.62 1.65 1.59 1.63 1.69 1.63 1.49 1.39 1.37 1.43 1.42 1.34 1.34 1.32 1.39 1.37 1.34 1.39 1.44 1.45 1.50 1.37 1.34 1.31 1.33 1.44 1.37 1.22 1.36 1.57 1.90 2.07 1.95 1.51 1.37 1.40 1.55 1.71
1.33 1.27 1.30 1.45 1.52 1.64 1.65 1.56 1.72 1.83 1.70 1.50 1.34 1.31 1.26 1.28 1.27 1.26 1.26 1.38 1.39 1.36 1.38 1.39 1.41 1.47 1.37 1.26 1.22 1.33 1.44 1.31 1.13 1.31 1.32 1.79 2.18 2.00 1.62 1.40 1.36 1.52 1.63
1.27 1.25 1.30 1.39 1.40 1.41 1.49 1.67 1.85 2.16 2.05 1.66 1.40 1.22 1.17 1.12 1.14 1.25 1.23 1.33 1.40 1.44 1.51 1.52 1.52 1.48 1.45 1.32 1.29 1.40 1.38 1.09 1.06 1.08 1.32 1.64 2.22 2.05 1.64 1.39 1.28 1.30 1.37
0.97 1.03 1.15 1.22 1.24 1.31 1.29 1.48 1.86 2.22 2.26 1.86 1.52 1.37 1.12 0.82 0.83 1.06 1.24 1.44 1.54 1.62 1.72 1.77 1.74 1.64 1.50 1.37 1.38 1.41 1.13 0.88 1.09 1.18 1.43 1.81 2.12 2.02 1.64 1.35 1.21 1.22 1.18
0.77 0.73 0.76 0.81 0.91 0.99 1.01 1.29 1.56 1.63 1.82 1.56 1.49 1.35 1.18 1.12 1.06 0.92 1.07 1.45 1.68 1.69 1.76 1.84 1.86 1.64 1.30 1.12 1.18 1.18 0.92 0.88 1.00 1.12 1.39 1.98 2.31 2.14 1.68 1.41 1.31 1.25 1.13
0.69 0.66 0.61 0.62 0.69 0.83 0.95 1.14 1.33 1.48 1.63 1.61 1.55 1.49 1.49 1.47 1.13 0.98 1.07 1.20 1.36 1.43 1.38 1.45 1.46 1.27 1.09 1.03 1.10 0.97 0.81 0.83 0.92 1.04 1.43 2.05 2.45 2.30 1.80 1.47 1.43 1.37 1.30
0.60 0.70 0.66 0.52 0.54 0.62 0.71 0.90 1.07 1.27 1.46 1.49 1.29 1.20 1.35 1.39 1.20 1.07 1.21 1.28 1.34 1.39 1.45 1.44 1.35 1.18 0.97 0.96 1.03 1.01 0.88 0.87 0.92 0.99 1.32 1.69 2.14 2.30 2.09 1.76 1.69 1.59 1.58
0.60 0.68 0.71 0.62 0.56 0.60 0.66 0.74 0.78 1.07 1.23 1.35 1.40 1.17 1.28 1.33 1.27 1.15 1.10 1.29 1.28 1.34 1.37 1.43 1.44 1.33 1.22 1.11 1.10 1.04 1.07 0.99 0.92 0.89 1.13 1.28 1.52 1.99 2.22 2.19 2.13 1.90 1.77
0.57 0.65 0.68 0.70 0.67 0.67 0.68 0.69 0.67 0.74 0.82 0.90 0.86 0.82 1.01 1.15 1.16 1.16 1.04 1.10 1.21 1.38 1.57 1.63 1.47 1.41 1.35 1.29 1.29 1.22 1.17 1.07 0.99 0.89 1.05 1.12 1.06 1.27 1.71 2.21 2.47 2.27 2.07
0.54 0.60 0.66 0.71 0.76 0.77 0.78 0.84 0.80 0.74 0.75 0.73 0.69 0.69 0.79 0.91 1.00 1.11 1.12 1.11 1.14 1.37 1.61 1.78 1.65 1.54 1.38 1.37 1.36 1.35 1.24 1.21 1.10 1.00 1.10 1.23 1.07 1.03 1.35 1.91 2.41 2.53 2.37
0.51 0.50 0.53 0.55 0.63 0.67 0.73 0.79 0.88 0.88 0.87 0.83 0.84 0.80 0.75 0.88 1.01 1.13 1.20 1.15 1.15 1.34 1.59 1.83 1.88 1.86 1.75 1.66 1.56 1.46 1.39 1.49 1.33 1.19 1.21 1.30 1.40 1.26 1.26 1.48 1.88 2.26 2.43
0.45 0.40 0.40 0.44 0.46 0.48 0.53 0.62 0.76 0.83 0.90 0.96 0.97 0.96 0.97 1.02 1.04 1.17 1.35 1.38 1.36 1.47 1.58 1.64 1.76 1.78 1.83 1.82 1.63 1.57 1.50 1.60 1.65 1.49 1.54 1.56 1.59 1.57 1.43 1.24 1.36 1.55 2.00
0.36 0.37 0.38 0.40 0.38 0.37 0.41 0.52 0.64 0.72 0.78 0.97 1.04 1.07 1.35 1.47 1.26 1.23 1.37 1.39 1.43 1.62 1.69 1.81 2.02 1.95 1.84 1.93 1.75 1.64 1.61 1.59 1.60 1.72 1.82 1.77 1.69 1.59 1.58 1.38 1.42 1.32 1.58
0.23 0.22 0.28 0.32 0.37 0.37 0.32 0.38 0.51 0.64 0.77 0.91 1.09 1.12 1.35 1.47 1.38 1.40 1.42 1.43 1.45 1.55 1.62 1.80 2.16 2.19 1.99 1.88 2.08 2.06 1.97 1.76 1.68 1.71 1.76 1.89 1.87 1.69 1.67 1.68 1.57 1.40 1.30
0.22 0.16 0.18 0.22 0.30 0.37 0.40 0.45 0.59 0.79 0.91 1.02 1.19 1.23 1.32 1.35 1.35 1.28 1.44 1.53 1.49 1.63 1.71 1.89 2.18 2.39 2.16 1.97 2.32 2.78 2.55 2.25 1.91 1.68 1.66 1.61 1.75 1.75 1.62 1.49 1.41 1.35 1.26
0.16 0.13 0.16 0.23 0.36 0.53 0.69 0.92 1.18 1.48 1.65 1.55 1.44 1.49 1.56 1.64 1.59 1.53 1.61 1.73 1.65 1.71 1.81 1.86 1.96 2.40 2.53 2.28 2.24 2.83 2.72 2.52 2.46 1.93 1.53 1.39 1.58 1.70 1.70 1.56 1.45 1.47 1.42
0.20 0.25 0.34 0.45 0.62 0.78 0.98 1.20 1.47 1.72 1.92 1.94 1.96 2.02 1.98 1.91 1.79 1.68 1.69 1.74 1.75 1.82 1.80 1.68 1.85 2.29 2.74 2.77 2.53 2.33 2.21 2.20 2.40 2.26 1.69 1.41 1.48 1.59 1.74 1.61 1.56 1.57 1.56
0.36 0.49 0.60 0.81 0.97 1.11 1.17 1.27 1.48 1.59 1.67 1.78 1.93 2.00 2.01 1.93 1.80 1.65 1.59 1.68 1.74 1.82 1.81 1.88 2.07 2.37 2.65 2.91 2.87 2.61 2.30 2.07 1.72 1.91 1.90 1.69 1.46 1.38 1.44 1.51 1.62 1.62 1.59
0.65 0.88 1.00 1.11 1.21 1.20 1.17 1.19 1.32 1.46 1.56 1.65 1.81 1.87 1.82 1.71 1.66 1.59 1.55 1.55 1.52 1.59 1.69 1.89 2.15 2.28 2.47 2.71 2.77 2.50 2.31 2.19 1.99 1.84 1.69 1.75 1.73 1.45 1.31 1.28 1.37 1.51 1.52